ECMWFFLT2_250_spd_000.txt.gz
Wind_Speed
50 52 53 51 48 49 49 44 41 43 41 40 41 38 36 35 33 31 32 32 31 29 27 27 28 29 30 31 32 34 35 32 30 30 29 27 29 31 32 34 34 34 33 33 34 35 35 37 38 38 39 39 39 39 38 38 39 41 43 44 45 46 46
54 55 55 52 50 51 51 46 44 45 43 41 42 39 37 37 36 35 35 36 35 32 30 30 32 32 33 33 34 36 38 37 35 34 33 32 32 33 34 36 37 37 36 36 36 37 37 39 41 41 42 43 43 43 43 43 44 45 46 46 47 47 47
58 58 57 54 52 53 53 48 46 45 43 43 44 40 39 40 39 39 38 38 37 35 33 33 34 35 36 36 37 38 41 40 38 37 37 36 36 36 37 39 41 41 39 39 39 38 39 41 42 44 46 47 46 46 47 47 48 49 49 49 48 47 46
61 62 60 57 55 55 53 49 47 45 44 47 47 43 42 42 42 41 40 40 40 38 36 36 36 37 38 38 39 41 43 42 40 41 40 39 39 39 38 40 43 44 43 43 41 40 41 42 44 46 48 49 50 50 50 50 50 51 50 49 47 46 45
64 64 60 58 57 57 55 51 49 47 48 51 51 47 45 44 44 43 43 43 43 41 38 37 37 38 38 39 41 42 43 42 41 43 42 41 41 41 41 41 43 45 46 45 44 43 43 44 46 47 49 50 51 51 51 51 51 50 48 47 45 44 42
66 62 58 60 62 59 57 54 52 51 51 52 52 49 47 46 45 46 46 46 45 43 41 39 38 39 39 41 43 43 42 42 43 44 44 44 44 44 44 44 45 47 47 47 47 46 46 46 47 47 49 50 51 52 52 52 50 49 46 44 43 41 38
66 62 60 64 65 61 59 56 54 55 53 52 52 51 50 49 49 50 48 45 44 44 44 42 41 41 41 43 45 43 41 42 44 45 45 46 46 46 46 46 46 47 47 48 48 48 48 48 48 48 49 50 50 51 51 51 49 47 44 42 40 38 37
68 66 64 66 67 64 60 57 56 56 54 54 54 53 54 54 52 51 49 45 44 46 47 46 44 43 43 45 46 44 42 43 45 46 48 48 49 48 48 47 47 48 48 49 49 49 49 49 50 50 50 50 51 51 51 50 48 45 43 41 38 38 39
70 69 66 65 66 64 61 58 57 58 57 57 56 55 57 57 54 53 51 49 47 48 49 47 45 44 46 48 48 46 44 45 46 48 50 52 52 51 49 49 50 50 50 50 51 50 50 50 51 51 52 52 51 51 51 50 48 45 43 41 41 42 44
71 68 65 63 65 65 63 61 60 60 61 60 58 58 60 59 57 56 55 53 52 51 49 48 47 47 49 49 49 48 47 47 47 49 52 54 55 54 52 51 51 53 53 52 52 52 51 51 51 52 53 54 53 53 52 52 51 48 46 46 46 47 50
73 69 66 66 68 69 69 66 63 63 64 64 63 63 62 61 61 61 58 56 55 53 50 49 49 49 50 50 50 50 49 47 48 50 53 55 56 57 56 53 52 53 54 54 54 54 54 53 53 54 55 55 55 55 55 54 53 52 51 51 52 53 56
76 73 71 71 72 72 71 68 67 67 68 68 67 64 62 63 65 63 60 59 57 54 51 51 51 51 51 52 51 50 49 48 49 52 54 55 57 59 58 55 53 53 54 55 55 55 55 54 54 55 56 56 57 57 57 57 56 56 56 56 58 60 62
78 75 73 73 74 72 71 70 70 71 71 70 68 64 63 65 67 65 64 63 59 56 54 53 53 54 54 53 50 49 50 50 51 53 54 55 58 59 58 57 55 55 56 56 55 55 56 55 55 55 56 57 58 59 59 59 60 60 60 61 63 64 67
78 76 74 74 75 73 72 72 74 74 74 72 70 67 66 68 69 67 67 66 60 57 56 56 57 58 57 54 51 50 51 51 52 55 57 57 59 58 58 57 57 57 57 57 56 56 57 57 58 57 58 58 59 60 61 62 63 64 64 65 66 68 71
78 76 74 74 74 73 72 73 74 75 74 73 72 70 69 71 71 69 70 68 62 59 59 61 62 62 60 56 54 53 53 53 54 57 60 61 61 59 58 58 57 57 58 57 57 56 56 57 58 59 60 61 61 62 62 64 66 67 68 68 68 69 70
76 75 73 72 70 71 72 73 72 72 74 74 74 74 74 74 71 70 71 68 64 63 65 66 66 64 62 60 58 58 57 56 57 59 62 64 65 63 61 60 59 59 58 58 58 57 56 56 57 58 60 61 62 63 64 65 67 68 68 68 67 68 69
76 74 73 70 69 70 73 72 70 71 75 76 75 75 76 75 70 68 70 68 65 68 70 68 66 66 65 64 62 61 60 59 60 63 65 67 68 67 65 64 63 62 61 60 59 59 58 58 58 59 60 61 63 63 63 64 65 66 67 67 67 68 69
76 75 73 71 70 71 72 71 69 71 74 74 73 74 75 72 68 67 68 66 66 69 71 69 68 69 69 67 65 64 64 64 65 67 69 70 70 69 68 67 67 66 65 64 62 61 61 62 61 62 63 64 64 63 63 63 63 65 66 67 67 67 65
76 75 73 73 72 71 71 71 70 71 71 70 71 74 74 70 67 66 66 65 67 69 71 71 71 71 71 69 68 68 68 68 69 71 72 73 72 71 70 69 69 68 68 67 66 65 65 64 65 66 67 67 65 63 63 64 65 67 67 65 64 61 58
77 75 74 74 73 71 71 72 72 72 71 69 70 73 74 71 68 67 66 66 68 70 72 72 72 71 71 70 70 70 71 72 73 74 75 74 73 72 72 72 72 72 71 71 70 68 67 67 68 68 67 67 65 65 66 68 69 69 65 62 59 55 49
79 77 76 76 74 72 72 73 72 72 70 69 70 72 74 73 71 70 69 68 69 71 72 72 70 70 70 71 71 71 71 74 76 76 76 75 74 75 76 76 75 74 73 73 72 71 71 72 72 70 68 66 66 68 70 70 70 68 65 61 56 47 40
80 77 77 76 75 74 74 75 74 73 72 72 73 75 76 76 75 73 72 71 71 71 71 70 69 69 70 71 71 71 72 74 75 76 77 76 77 78 78 77 75 74 74 74 73 73 73 73 73 71 70 69 69 71 71 68 67 65 60 55 51 43 38
80 79 78 77 77 77 77 78 79 78 78 77 77 78 80 80 78 76 75 73 73 72 71 70 70 70 71 72 71 71 72 73 74 76 77 78 78 77 77 76 75 74 74 74 74 74 72 70 68 68 68 71 72 71 70 67 64 61 53 48 47 45 45
81 81 82 81 80 80 80 80 81 81 81 80 78 80 82 81 79 79 79 77 74 73 72 72 72 72 73 73 72 72 72 73 74 76 77 77 77 76 76 76 76 75 75 75 75 74 71 70 70 70 72 74 74 72 70 66 63 60 54 51 53 55 56
84 84 85 84 83 82 81 80 81 81 81 81 81 82 83 81 80 81 81 80 78 75 74 75 74 75 75 74 74 73 74 74 74 75 76 76 76 76 77 77 75 74 73 72 72 71 71 72 73 73 73 74 73 71 68 66 64 60 55 55 59 60 58
86 85 85 84 83 82 80 79 80 80 81 82 84 84 83 82 82 82 81 81 80 79 78 78 77 76 77 76 75 75 76 76 76 76 77 77 76 76 76 76 75 73 71 70 70 71 72 73 74 73 72 71 69 67 64 63 63 61 58 59 63 63 61
83 83 83 82 82 81 80 79 80 81 82 84 85 85 84 82 81 81 80 80 81 82 82 81 80 79 78 77 76 77 77 77 76 75 76 76 75 76 76 76 75 73 71 71 71 71 72 73 73 73 71 68 66 65 63 62 62 62 63 66 68 68 67
81 80 80 80 81 80 80 80 82 82 83 85 85 85 85 84 83 83 82 81 82 83 84 83 81 81 81 79 78 77 77 76 76 75 75 75 75 75 75 75 75 73 71 70 70 70 70 71 71 70 68 67 65 64 64 64 64 64 66 69 71 71 69
78 78 78 78 79 78 76 77 80 81 81 82 83 83 84 84 84 83 83 82 82 83 85 85 83 82 81 80 79 77 77 76 74 73 73 73 72 72 72 72 71 71 71 71 70 70 70 70 69 69 67 65 63 61 61 62 63 65 67 68 70 71 68
76 76 75 74 72 70 67 68 74 78 78 78 79 80 82 83 83 84 83 81 80 78 78 81 83 81 80 80 78 74 70 67 66 67 70 70 70 70 71 70 70 71 72 72 72 72 72 72 71 68 65 60 58 58 57 54 55 59 62 62 65 66 66
74 75 74 71 67 64 60 62 69 76 78 77 76 77 79 80 81 82 78 73 72 72 70 73 79 79 78 77 75 70 65 62 62 65 68 68 69 71 73 74 74 74 74 74 74 74 74 71 68 64 61 57 56 57 55 49 47 49 52 56 61 64 66
74 75 74 71 68 65 62 62 65 71 75 77 76 75 77 78 78 77 74 69 67 67 66 67 71 73 72 72 71 68 66 64 63 64 66 68 70 72 73 73 73 73 73 73 73 73 70 68 65 62 59 56 56 57 56 53 53 56 60 63 67 70 72
72 73 72 69 66 65 65 66 69 71 74 78 78 77 78 79 78 77 76 73 69 66 65 66 67 68 69 69 67 65 65 65 66 67 68 69 69 69 69 69 69 70 70 71 71 71 69 66 63 61 58 56 57 58 58 58 61 65 68 68 68 69 72
69 70 69 67 64 64 64 66 70 73 76 80 80 79 79 79 78 78 78 76 73 70 68 67 65 63 61 60 59 59 60 62 65 67 68 68 67 67 67 68 69 70 71 72 72 70 67 64 62 60 58 56 57 58 60 62 64 65 66 66 67 67 67
61 61 62 62 62 64 65 66 69 73 77 80 80 80 80 78 77 77 76 75 72 69 68 66 62 59 58 57 57 57 58 60 64 67 70 72 71 70 70 71 73 74 74 74 72 70 68 66 64 62 60 59 58 59 62 64 65 64 66 69 70 68 66
55 55 58 61 63 66 68 70 74 77 80 81 80 80 79 77 74 73 73 72 70 70 70 69 67 64 63 62 62 62 63 64 66 67 69 71 72 73 74 76 77 77 75 74 73 72 71 70 68 66 65 64 63 63 66 69 70 71 73 75 76 75 76
61 62 65 66 67 70 73 76 80 82 82 82 80 78 77 75 73 73 73 73 71 71 71 71 70 68 68 68 68 69 69 69 70 71 71 73 74 75 76 77 78 78 76 75 75 75 74 74 73 73 72 71 70 70 72 75 75 74 74 76 79 81 84

ECMWFFLT2_250_spd_006.txt.gz
Wind_Speed
62 61 59 59 59 55 54 53 47 44 46 47 47 44 43 42 39 36 34 32 34 36 33 31 32 32 31 31 32 34 34 33 33 33 32 32 32 32 32 33 33 34 35 35 36 36 36 36 36 36 37 37 38 38 38 38 39 39 39 40 40 41 42
65 65 64 63 63 59 56 54 49 50 53 52 48 46 44 43 39 37 36 35 36 37 37 36 35 34 34 33 33 36 36 35 36 35 35 35 35 35 35 36 35 35 36 37 38 38 39 38 38 38 39 39 40 40 39 39 40 40 41 41 42 43 43
69 70 69 67 66 62 57 54 54 56 56 51 48 46 45 44 41 39 39 39 37 37 40 41 38 37 37 35 35 37 38 37 37 37 37 37 38 38 39 39 38 38 37 38 39 40 40 40 40 40 41 41 41 41 41 41 42 42 43 43 44 44 45
75 76 75 69 65 63 59 57 58 58 56 52 49 47 45 44 41 40 40 40 38 38 41 43 40 39 39 39 39 40 40 40 39 39 39 39 40 41 41 41 41 40 40 40 41 41 42 42 42 42 42 43 43 43 44 44 44 45 45 45 46 46 47
80 79 75 67 63 64 63 61 61 60 57 54 51 50 47 45 42 41 41 40 39 41 43 44 43 41 41 41 42 43 43 43 42 41 41 42 43 43 44 44 43 43 43 43 43 44 43 43 43 44 45 45 46 46 46 46 47 47 47 48 48 48 48
80 77 73 69 68 70 69 66 64 63 61 58 56 54 50 48 47 45 44 43 43 45 47 46 45 44 44 44 45 45 45 45 44 44 44 45 46 46 46 46 45 45 46 46 46 46 45 45 45 46 47 47 48 48 48 48 48 48 48 49 49 49 49
79 76 76 75 74 75 74 70 67 66 65 62 60 57 53 52 51 48 47 46 44 46 48 47 45 45 46 46 46 45 46 46 46 47 47 47 48 49 48 47 47 48 48 49 49 48 47 47 48 48 49 49 49 50 50 50 49 49 49 49 50 50 49
81 80 81 80 80 79 77 72 67 65 64 62 60 58 57 56 54 51 50 46 43 46 48 46 45 46 47 47 47 46 47 49 48 48 49 49 50 50 49 48 49 49 50 51 50 50 49 49 49 50 50 51 51 51 50 50 50 49 49 49 49 49 50
85 85 85 84 81 79 75 70 65 64 63 62 62 61 60 58 55 53 51 45 43 46 48 46 47 48 49 48 48 48 49 51 51 49 49 50 50 51 50 49 49 51 52 52 52 51 50 50 50 51 52 52 52 52 51 51 51 50 50 50 50 50 51
86 85 83 80 77 75 72 68 65 64 65 65 65 64 63 60 57 56 53 47 45 49 50 51 52 52 51 50 50 50 51 53 52 50 50 50 50 51 51 50 50 52 53 52 52 52 51 51 52 52 53 53 53 52 52 51 51 51 51 51 52 53 53
84 82 79 77 76 75 74 71 68 68 68 68 68 68 66 62 60 59 55 51 52 53 54 56 57 55 53 53 53 53 53 53 51 50 50 50 50 51 52 52 51 52 53 53 54 54 53 53 53 54 54 54 54 54 53 52 53 53 53 53 55 56 55
84 82 81 81 81 80 78 75 73 72 73 73 73 72 67 64 64 61 57 57 57 56 57 60 59 57 55 55 56 56 54 52 50 51 51 51 51 52 54 53 52 53 54 55 56 56 55 55 55 56 56 56 56 55 54 55 55 56 56 56 57 58 57
85 84 84 84 84 83 81 79 77 76 76 76 76 73 69 67 66 62 59 61 61 59 60 61 59 57 57 58 58 57 54 52 52 53 53 53 53 53 54 55 54 55 56 57 58 59 58 57 57 58 59 58 58 57 57 57 58 59 59 59 60 60 59
86 85 86 86 86 85 83 82 80 78 78 78 77 75 71 69 67 63 62 64 63 61 60 60 58 58 58 59 59 56 54 54 54 55 54 55 55 55 55 55 55 57 59 60 61 61 60 59 59 59 60 60 60 60 60 60 60 61 62 62 62 62 62
88 87 87 88 87 87 85 83 82 81 80 80 78 76 73 71 68 65 65 66 64 61 60 60 60 59 59 59 58 56 56 56 56 56 56 57 57 56 55 55 56 58 60 62 62 62 62 62 62 61 62 62 62 63 63 62 62 63 64 64 64 64 63
89 88 88 88 88 88 87 84 83 82 81 80 78 76 75 73 69 67 67 67 64 61 62 63 62 60 59 59 59 57 58 58 57 57 58 60 60 58 56 57 58 60 61 62 63 63 64 64 64 64 64 64 64 65 65 65 64 64 64 63 63 64 63
89 88 88 88 89 90 89 85 82 81 81 80 79 77 76 74 71 69 68 66 63 62 64 64 63 61 60 59 59 59 59 60 60 60 61 63 62 60 58 59 61 62 63 63 64 65 66 67 67 67 66 65 66 66 66 64 63 63 63 62 61 61 60
87 87 88 89 91 92 88 82 80 81 81 81 80 79 77 75 73 70 68 66 65 64 64 64 63 62 61 60 60 61 62 63 63 64 65 66 64 62 61 62 64 65 64 65 66 67 68 68 68 67 67 66 66 66 65 63 61 61 61 61 60 59 59
86 86 89 91 92 90 85 81 81 82 82 82 82 80 78 76 74 71 69 68 66 65 64 65 65 63 62 62 63 65 66 66 67 68 68 68 66 64 64 64 66 66 66 66 67 68 68 68 68 67 66 65 65 65 64 62 61 60 60 60 60 60 60
87 86 87 89 90 87 84 83 82 83 83 83 82 79 78 76 74 72 71 69 67 66 66 66 65 65 66 66 67 69 69 69 70 70 69 69 68 66 65 66 66 66 66 67 67 67 67 67 67 66 65 64 64 65 64 62 62 62 62 62 61 61 62
88 86 86 88 88 87 85 85 84 84 84 82 80 79 78 77 75 73 71 69 67 66 66 66 67 68 69 69 69 70 70 72 72 71 70 69 68 67 66 66 66 66 66 66 66 66 66 66 65 64 63 64 64 64 64 63 64 64 64 64 64 64 64
88 86 87 88 88 87 85 84 84 84 83 82 81 80 78 77 75 73 70 68 67 67 66 67 68 69 70 69 69 70 71 72 73 71 70 69 68 67 66 65 65 65 66 65 65 65 65 65 64 63 63 65 66 65 65 66 67 67 66 65 65 65 65
89 88 88 88 87 86 84 84 84 83 83 83 82 80 79 77 74 71 69 68 67 67 67 67 68 69 70 70 70 71 71 72 73 72 71 69 67 66 65 64 64 65 66 65 64 64 65 64 64 64 65 67 67 67 68 69 70 69 68 67 67 67 66
89 88 88 89 88 86 84 83 83 83 83 84 81 78 78 76 72 70 69 68 68 68 67 68 69 70 71 71 72 72 72 72 73 72 70 68 66 64 64 63 64 66 66 65 65 65 66 65 66 67 68 69 69 69 70 71 71 71 70 69 69 69 68
90 88 88 89 89 88 85 84 83 82 83 83 80 77 77 75 72 71 70 69 68 69 69 69 71 72 73 72 72 72 72 72 72 70 68 66 65 64 64 64 66 67 67 67 67 68 68 68 69 70 70 70 70 71 72 73 73 73 72 71 70 70 68
90 89 89 89 89 88 86 84 83 82 81 80 77 74 75 74 72 71 70 70 69 69 70 71 71 71 72 72 70 70 71 70 70 69 68 67 65 65 66 67 68 69 70 70 71 71 71 71 71 71 72 72 72 72 73 74 74 74 73 72 71 70 68
88 89 89 88 88 88 87 85 82 81 79 77 75 73 73 74 72 70 70 70 69 68 69 70 69 69 71 71 69 69 69 69 69 70 69 67 67 67 68 70 70 71 72 73 73 73 73 73 73 73 74 74 74 74 74 75 75 74 74 72 71 70 68
85 88 88 87 87 87 86 84 82 80 78 76 75 74 74 74 72 69 68 68 67 67 68 70 69 69 70 70 69 69 69 69 69 70 70 69 70 71 72 73 74 74 74 73 73 73 73 74 74 74 75 75 75 75 75 74 74 74 74 72 71 70 67
78 83 85 85 86 86 85 83 81 79 78 78 77 76 75 74 72 70 69 69 69 70 70 70 70 70 70 70 70 71 71 71 70 70 70 72 73 73 74 75 75 75 75 74 73 73 74 75 76 75 76 76 75 74 74 73 74 75 73 71 69 67 65
68 74 80 82 83 83 83 82 81 79 78 78 78 77 75 74 74 73 72 72 72 72 73 72 72 71 71 71 71 71 71 71 70 69 67 68 70 70 70 72 73 74 74 75 75 75 76 76 75 75 75 75 74 74 74 74 73 71 70 68 68 68 67
62 64 72 77 78 77 76 75 76 78 80 80 79 78 76 74 74 74 73 74 74 75 75 74 73 73 73 73 73 73 73 72 72 71 69 69 71 72 73 74 74 75 75 76 75 75 74 74 73 73 73 73 73 73 72 70 68 67 68 70 71 71 70
65 65 70 73 73 73 74 72 70 70 74 78 79 79 78 76 74 74 74 75 76 75 75 74 74 74 74 75 75 75 75 75 74 74 74 74 75 76 75 74 73 73 74 74 72 71 71 72 72 71 69 68 68 69 68 68 69 70 72 72 72 70 70
65 66 70 72 72 71 71 73 72 68 68 72 74 76 76 75 74 74 75 77 77 77 76 75 75 75 76 76 77 76 77 77 77 77 78 78 78 77 75 73 71 70 70 70 70 70 71 70 68 65 62 62 65 67 68 70 72 73 74 74 73 72 72
62 62 63 66 70 70 68 68 70 71 70 71 72 73 74 74 72 71 70 70 71 74 74 73 73 75 75 74 75 75 76 76 77 77 77 77 77 76 75 73 72 71 70 71 72 72 71 67 64 64 65 67 69 71 72 73 74 74 75 75 74 72 70
67 64 63 62 64 67 67 66 68 70 70 70 71 72 73 74 74 73 71 69 68 70 70 69 69 72 73 71 72 74 75 75 75 75 74 74 74 74 75 75 75 74 74 75 76 74 70 67 66 68 69 71 72 73 73 73 73 74 74 73 71 69 67
75 71 67 64 63 62 62 64 67 71 71 69 68 69 70 71 73 75 77 77 77 77 76 74 73 74 74 73 74 74 74 74 75 75 75 75 75 77 77 77 77 77 77 78 78 75 72 70 70 70 70 70 72 72 72 72 72 73 73 72 72 71 69
78 76 72 71 70 67 65 64 66 69 71 70 68 67 69 70 71 73 75 76 78 79 78 77 75 75 74 75 75 75 76 77 78 78 79 79 78 78 78 78 77 77 77 77 76 76 75 75 75 74 73 73 72 71 71 72 73 74 74 74 75 75 73

ECMWFFLT2_250_spd_009.txt.gz
Wind_Speed
72 71 68 66 65 61 59 57 52 48 46 47 47 44 44 43 42 42 39 38 40 37 34 33 33 33 33 32 32 32 31 31 31 30 29 29 28 28 28 29 30 31 31 32 31 31 31 31 32 32 33 33 33 33 34 34 34 34 35 36 36 37 38
76 75 73 71 69 66 64 60 54 53 53 52 49 46 45 45 42 42 41 41 42 40 37 36 36 36 35 34 34 34 34 34 33 32 32 31 31 31 31 31 32 33 33 33 33 32 32 33 33 34 34 35 35 35 35 36 36 36 37 38 38 39 40
80 80 78 76 72 70 66 62 59 59 58 54 51 48 46 45 44 43 44 43 43 43 42 41 40 39 38 36 36 36 36 36 35 35 34 34 34 34 34 33 33 34 35 35 35 35 35 35 36 36 36 36 36 37 37 38 38 38 39 40 40 41 42
85 84 83 78 73 71 68 65 64 63 60 56 54 50 47 47 46 46 46 45 44 45 48 47 43 41 40 37 37 38 38 37 37 37 37 36 36 36 36 35 35 35 36 37 38 38 38 38 38 39 39 39 39 39 39 39 40 40 40 41 41 42 43
88 86 83 78 74 73 71 69 67 66 63 59 56 53 49 47 47 46 47 46 45 47 51 50 47 44 42 39 38 40 41 40 40 40 39 38 38 38 38 37 37 38 39 39 40 40 40 41 41 42 42 42 41 41 41 41 41 41 42 42 42 43 44
89 85 81 78 78 78 76 74 72 70 66 62 60 57 52 49 48 47 47 47 47 50 52 52 51 48 45 42 41 43 43 44 43 42 41 41 40 40 40 40 39 40 41 42 42 42 42 43 44 44 44 44 44 43 42 42 42 42 42 43 43 44 45
88 85 83 83 83 82 82 80 77 74 71 68 64 59 54 52 51 50 50 48 49 52 54 55 54 52 49 46 45 46 46 47 46 44 43 43 43 43 43 42 42 42 43 44 44 44 44 45 45 46 46 46 45 45 44 43 43 43 43 44 44 45 45
89 88 88 88 87 87 85 81 78 75 73 70 66 61 58 56 55 53 52 49 48 53 56 56 56 55 52 50 49 49 49 49 49 47 46 46 46 45 45 45 44 45 45 46 46 46 46 47 47 48 48 47 47 46 46 44 44 44 44 45 46 46 47
92 93 92 90 88 87 84 80 77 75 72 71 69 65 62 60 58 55 53 49 48 53 57 58 57 56 55 53 52 52 51 51 51 50 49 50 49 47 47 47 47 48 48 48 48 48 48 48 49 49 49 49 48 48 47 46 45 45 45 46 48 48 48
93 93 91 88 85 83 82 79 77 75 73 73 71 69 66 62 59 57 54 49 49 54 58 58 58 58 57 56 55 55 55 53 53 53 53 52 50 49 49 49 49 50 50 50 50 50 51 51 51 51 51 50 50 50 49 48 47 47 47 48 50 50 50
93 91 90 88 86 84 83 81 80 78 77 75 75 74 69 63 61 59 55 52 53 56 58 59 59 60 60 58 58 58 57 55 55 55 54 52 51 50 51 51 51 51 51 51 51 51 52 52 53 53 52 52 52 52 51 50 50 49 49 50 51 52 52
94 92 92 92 91 89 87 84 83 82 80 79 78 77 70 65 65 61 56 56 57 58 60 61 61 62 62 61 61 59 58 56 56 55 53 52 51 51 52 53 53 52 52 52 52 52 53 54 54 54 55 55 55 54 54 53 52 51 51 52 53 54 54
96 94 95 95 95 93 91 88 86 85 84 82 80 77 72 69 68 63 59 62 61 59 61 63 63 64 64 64 62 60 58 57 56 54 53 53 52 52 54 55 55 54 53 53 54 54 55 55 56 56 57 58 57 57 56 55 54 53 53 54 55 55 55
98 97 98 98 97 96 94 92 89 88 87 84 82 79 76 74 72 67 65 66 63 61 62 63 64 65 65 64 62 60 58 58 57 55 54 54 54 54 55 56 56 56 55 55 56 56 57 58 58 59 59 60 59 59 58 57 57 56 56 56 57 56 56
100 99 99 100 99 97 96 94 92 90 88 86 83 81 79 77 74 70 69 68 64 62 63 63 65 66 65 64 62 60 59 59 58 56 56 56 56 56 57 57 57 57 56 55 56 57 58 60 60 61 62 62 62 62 61 60 60 59 58 58 58 57 56
100 100 100 100 100 99 98 96 94 92 90 87 84 81 79 77 74 72 70 67 63 63 64 65 65 66 65 64 63 61 61 60 59 58 57 57 57 58 58 58 58 57 56 56 56 58 60 61 62 63 64 65 66 66 65 64 63 62 61 60 59 58 56
98 100 101 101 102 102 100 97 94 92 90 87 84 82 79 77 75 74 71 66 63 65 67 67 67 67 66 65 64 62 62 61 60 59 58 58 58 59 59 60 58 57 56 56 56 58 61 63 63 64 65 67 68 69 69 68 67 65 64 62 60 58 56
96 99 102 103 104 104 99 94 92 91 90 88 86 83 80 78 77 75 71 66 65 66 68 67 68 68 67 65 64 63 62 61 60 59 59 59 60 61 62 62 60 58 57 57 57 60 63 64 64 65 67 69 69 70 70 70 69 68 66 64 61 58 56
94 98 102 104 104 101 96 92 91 92 92 91 89 86 83 81 79 75 71 68 66 66 68 69 69 69 68 66 64 62 61 61 60 60 61 62 62 63 64 63 60 59 58 59 60 63 65 65 65 67 69 70 70 70 70 70 70 68 67 65 62 59 57
92 95 100 103 102 98 95 93 93 94 93 92 91 88 85 82 79 76 72 70 68 67 69 70 72 71 69 67 65 63 62 62 62 63 64 64 64 66 65 63 61 61 62 62 63 64 65 66 68 70 71 71 70 70 70 69 68 67 65 64 62 60 59
90 93 97 101 100 97 95 94 94 94 93 92 91 89 86 83 81 78 75 72 70 69 70 72 74 73 71 68 66 65 64 63 64 66 67 67 67 68 66 64 64 65 65 65 65 66 67 69 71 72 71 71 70 70 69 68 67 65 64 63 62 61 61
87 91 95 98 98 96 95 94 93 93 93 91 91 90 87 85 82 80 77 75 72 70 71 74 74 73 72 70 68 67 66 66 68 69 70 70 70 69 68 67 67 68 68 67 67 68 69 70 72 73 71 71 70 69 68 67 65 64 63 63 62 63 64
84 88 92 96 97 95 95 94 93 93 93 92 92 91 89 86 83 82 80 77 74 73 73 73 74 73 72 70 69 69 68 69 71 72 72 72 72 71 70 69 69 69 70 70 69 69 70 72 73 72 71 70 69 68 67 66 65 65 64 63 64 65 67
81 85 89 93 95 94 94 94 93 93 93 93 93 91 89 85 84 83 82 79 77 75 74 73 74 73 72 70 70 70 70 71 72 72 73 73 73 72 71 71 71 71 71 71 71 71 72 72 72 72 71 70 68 67 66 66 65 65 65 65 67 68 70
78 82 85 89 91 92 92 93 93 93 94 93 92 90 87 85 84 84 82 80 78 77 75 74 74 73 72 71 70 70 71 72 73 72 73 73 73 73 73 72 71 71 71 72 72 72 72 72 72 71 70 69 68 67 66 66 66 66 67 68 70 71 73
74 78 82 85 87 89 91 92 93 93 93 91 90 89 87 86 85 84 82 80 79 78 77 76 75 74 73 72 72 72 72 72 72 72 73 73 74 74 73 72 72 72 72 72 72 71 72 72 72 71 70 69 68 67 67 67 67 69 70 71 72 73 74
71 75 78 81 83 86 88 90 92 92 91 90 89 89 88 86 85 84 82 80 79 78 78 77 75 74 74 73 73 73 72 72 72 73 73 73 74 74 74 73 73 72 72 72 71 71 71 71 71 70 70 69 68 68 68 69 70 71 71 72 73 74 75
68 72 74 77 79 82 86 88 90 90 90 89 89 88 88 87 85 83 82 81 79 79 78 76 76 75 76 76 75 74 73 73 73 73 74 74 75 75 75 75 73 72 70 69 66 67 70 71 70 70 71 71 71 70 71 71 71 72 73 74 74 75 75
64 67 69 71 75 78 82 86 88 89 89 89 88 87 87 87 85 83 82 80 79 78 76 75 75 76 76 76 75 74 74 74 74 74 75 75 76 76 75 75 73 71 70 67 63 63 66 69 69 70 71 72 73 72 71 72 72 73 74 74 74 73 73
61 62 63 63 66 72 78 82 85 87 87 88 87 87 87 86 84 83 82 80 79 78 76 74 74 75 76 75 75 74 75 75 75 75 75 75 75 75 74 74 72 70 69 68 67 67 68 70 72 73 73 73 73 72 72 73 74 73 73 72 72 71 71
57 59 61 58 55 59 68 76 81 84 85 86 86 86 85 85 84 83 82 80 78 77 76 75 74 75 75 75 74 74 75 76 75 75 74 74 74 74 73 73 71 70 69 70 71 71 72 73 75 74 73 73 73 72 73 74 74 73 72 72 72 72 73
53 56 61 60 53 50 54 62 71 78 82 84 84 84 84 84 83 82 81 80 78 77 76 75 75 75 74 74 74 74 74 74 74 73 73 73 73 73 73 73 72 72 72 73 72 72 74 75 76 75 74 74 73 73 73 75 75 74 74 74 74 75 76
52 50 53 57 57 53 50 50 56 64 73 79 80 81 82 82 81 81 80 78 77 77 76 76 76 75 75 74 75 74 74 73 73 73 73 73 73 74 74 74 74 74 74 74 74 74 75 76 76 76 75 75 74 74 74 75 75 75 75 76 76 77 78
50 47 46 48 52 54 52 49 48 52 59 67 72 76 79 79 78 78 78 77 77 76 75 75 76 75 75 75 75 74 74 73 73 73 73 73 74 74 74 74 75 75 75 76 76 76 77 77 77 77 76 76 75 75 74 74 75 76 77 78 79 79 79
50 49 47 44 44 47 49 48 47 46 47 53 60 66 71 74 75 76 75 75 75 74 74 75 76 76 76 75 75 75 74 74 74 73 74 74 74 74 75 75 76 77 78 78 78 78 78 78 77 77 76 75 75 74 74 74 76 77 78 79 80 80 79
52 50 50 48 46 47 47 47 47 46 43 45 50 55 58 61 65 69 71 72 72 69 66 65 68 72 75 76 76 75 75 74 74 74 74 75 75 76 76 77 77 78 80 80 79 79 78 77 77 76 75 74 74 74 74 75 77 78 78 79 80 80 79
55 53 53 53 52 51 50 50 50 50 48 46 46 48 50 50 50 52 56 61 64 65 59 52 50 56 64 70 74 74 74 74 75 75 76 77 78 78 78 79 79 80 80 79 78 77 76 76 76 75 74 74 74 74 75 76 77 77 78 79 79 79 79

ECMWFFLT2_250_spd_015.txt.gz
Wind_Speed
79 78 78 79 78 72 70 75 70 59 57 58 56 54 55 57 52 47 47 45 44 46 48 47 43 39 38 36 32 33 34 31 30 28 28 28 29 27 27 28 28 28 28 28 27 27 27 27 28 28 28 27 27 26 26 26 26 27 27 28 29 28 28
82 82 82 82 80 76 76 77 71 64 65 63 59 58 58 56 51 48 50 49 47 48 49 48 45 42 39 36 35 36 36 35 33 31 31 30 29 29 30 31 30 31 31 30 30 29 29 29 30 30 30 29 29 28 28 28 29 29 30 30 31 30 30
84 85 85 84 82 80 78 77 73 72 71 65 61 61 59 54 51 51 52 51 50 49 50 49 48 45 39 35 39 41 39 38 36 35 34 32 31 32 35 35 33 33 33 32 32 32 32 31 31 32 32 32 31 30 30 30 31 31 32 32 32 32 31
85 88 87 85 83 81 80 78 76 77 74 68 66 64 59 56 55 54 53 53 51 50 52 52 50 47 40 38 44 45 41 40 39 39 38 35 34 35 37 37 36 36 36 35 34 34 34 34 33 34 34 34 33 32 32 32 33 33 33 33 33 33 33
84 87 86 84 83 83 82 81 79 80 78 73 71 66 63 62 60 56 55 54 52 52 55 56 53 49 43 43 48 47 43 43 43 42 41 39 38 38 39 39 38 38 38 37 37 36 36 36 36 36 36 36 35 35 34 34 34 35 35 35 35 34 35
79 82 85 85 86 87 87 85 83 82 81 79 75 70 69 66 60 56 56 54 54 55 57 59 57 52 47 47 50 49 47 47 46 45 44 42 41 41 41 40 40 41 41 40 39 38 39 39 38 38 38 37 37 36 36 36 36 36 36 37 37 36 36
74 78 84 88 90 91 91 89 87 85 85 85 82 76 72 68 61 59 59 56 55 58 59 61 60 53 49 50 51 50 51 49 47 47 46 44 43 42 42 41 40 42 42 41 40 40 40 40 40 39 39 39 38 38 38 38 38 38 38 38 38 38 39
72 76 82 88 92 93 93 92 89 87 88 88 85 78 75 73 67 64 64 58 55 58 61 62 62 56 53 53 52 53 54 50 48 49 47 46 46 44 44 43 42 43 43 42 41 41 41 41 41 41 40 40 40 40 40 40 40 40 40 40 40 40 41
69 72 77 83 89 91 92 92 90 87 89 89 84 81 81 77 70 68 67 61 57 61 63 64 65 61 56 55 55 55 54 51 50 50 49 50 49 46 46 46 45 45 45 43 42 42 42 42 42 42 42 42 42 41 41 41 41 42 41 42 42 43 43
66 68 73 78 84 89 90 92 91 90 91 89 84 85 86 79 72 72 70 63 61 64 64 64 67 65 58 56 58 57 54 52 51 50 51 52 51 48 48 48 46 45 45 45 44 44 44 44 44 44 44 44 44 43 43 43 43 43 43 43 44 45 45
66 68 71 76 82 89 92 94 95 95 94 92 89 90 90 81 77 77 72 66 67 68 66 65 68 66 61 60 62 60 57 54 52 52 54 55 53 50 49 48 47 46 46 47 47 46 46 46 46 46 46 46 46 46 45 45 45 45 46 46 46 46 47
66 68 70 73 80 87 91 93 95 97 98 96 94 94 91 85 83 81 75 72 72 70 68 68 68 67 66 66 65 62 59 56 55 57 59 57 54 52 50 49 47 47 48 49 48 47 48 48 48 48 48 48 48 48 48 48 48 48 48 49 49 49 49
64 68 70 71 76 83 89 90 92 96 99 99 98 96 91 89 89 85 79 78 75 72 71 69 67 68 71 71 68 65 63 60 59 61 61 58 56 53 52 50 49 48 49 50 49 50 50 50 50 50 50 50 50 51 51 51 50 50 51 52 52 51 51
62 67 70 70 72 78 85 89 90 94 99 100 99 96 93 93 93 87 83 83 79 75 75 72 68 70 75 74 72 70 67 65 65 65 62 60 58 55 54 53 51 50 51 51 51 52 52 52 52 52 51 52 52 52 53 53 53 53 54 54 54 53 54
60 65 69 70 70 73 79 86 90 92 96 100 101 98 95 95 94 89 87 87 83 80 79 74 71 73 76 77 75 74 72 69 69 67 62 61 60 58 57 56 53 53 54 54 54 54 54 54 53 53 53 53 54 55 55 56 56 55 56 57 56 56 56
57 61 67 69 70 72 75 82 87 90 92 97 100 100 98 97 95 92 90 89 84 81 80 77 75 75 76 78 79 78 76 73 72 68 63 63 63 61 59 57 54 54 56 56 56 56 56 55 54 55 55 55 56 58 58 58 58 58 59 59 59 58 58
57 58 63 66 70 74 74 75 80 86 89 93 96 98 99 98 96 94 93 89 84 83 84 83 78 75 75 78 81 82 79 76 74 70 66 66 65 63 60 57 56 56 58 58 58 57 56 57 57 57 57 58 59 60 60 61 61 61 61 61 61 61 60
61 60 63 67 71 72 69 69 76 83 88 90 93 96 99 101 100 98 95 91 88 88 88 85 80 76 76 78 82 84 83 79 76 74 70 68 67 64 61 59 58 59 61 61 60 58 57 58 58 58 59 61 62 62 63 63 62 62 62 63 64 64 63
64 62 64 67 67 65 65 69 75 80 84 87 90 94 97 100 103 101 97 95 94 92 90 87 83 78 77 80 84 86 87 82 77 75 73 71 69 65 63 62 59 61 63 63 62 61 61 59 59 60 62 64 64 64 65 65 64 63 64 64 65 66 66
65 64 63 62 60 61 66 69 71 74 79 84 87 90 94 97 100 101 99 98 97 96 93 90 87 81 78 82 86 87 88 85 79 75 74 73 70 67 66 65 62 63 66 65 64 65 64 62 61 62 64 65 65 65 66 67 67 66 66 66 67 67 67
67 65 62 59 58 61 64 67 67 67 71 78 84 88 90 94 96 98 100 99 98 98 95 92 90 84 81 84 87 87 87 86 82 77 76 76 72 68 69 69 67 67 68 68 69 70 67 64 63 64 65 66 66 67 68 69 69 68 68 68 68 69 69
67 65 62 60 60 59 59 59 59 60 65 71 79 84 86 90 93 95 98 100 100 99 97 95 93 89 84 84 86 86 87 87 85 79 76 78 78 75 74 73 71 70 70 71 73 73 70 67 66 65 66 67 68 69 70 71 71 70 70 70 70 71 71
66 64 61 58 57 57 58 56 55 58 62 65 71 78 80 84 88 91 94 98 101 101 100 98 97 93 88 85 85 87 89 90 87 80 77 81 82 79 77 76 74 73 72 72 75 75 73 70 69 67 68 68 70 71 72 73 72 72 72 72 73 73 73
65 63 60 57 56 56 57 57 57 57 58 60 65 69 73 78 84 88 91 94 98 100 101 101 100 95 90 87 87 89 92 92 89 85 85 88 86 82 80 79 76 75 74 74 76 77 75 73 72 70 69 70 72 73 74 74 73 73 73 74 75 75 74
65 62 59 57 57 54 53 55 55 54 57 62 62 60 63 72 80 85 87 90 93 96 98 101 100 96 94 93 92 90 90 92 91 90 91 93 90 85 82 80 77 77 77 77 77 78 78 77 75 73 71 72 74 75 75 75 74 74 75 75 76 76 75
63 61 59 58 56 52 51 54 54 52 54 57 56 54 58 66 75 81 84 87 91 92 95 100 101 99 99 98 94 90 89 93 95 94 95 96 92 87 84 82 80 80 81 79 78 79 80 81 79 75 74 75 76 76 76 76 75 75 76 76 76 76 76
61 61 61 60 56 51 50 54 56 56 54 53 54 57 59 63 71 77 80 83 88 89 92 97 100 102 102 100 97 92 90 94 97 97 97 97 93 89 86 85 84 83 82 81 80 80 82 83 81 78 77 77 77 77 77 77 77 77 77 77 77 77 76
62 62 62 61 56 50 50 53 56 58 58 55 56 59 58 60 67 73 75 79 83 86 89 91 93 96 100 101 99 95 92 93 97 97 96 95 94 91 89 87 86 84 83 83 82 82 83 84 83 81 79 78 78 78 78 78 78 79 78 78 77 76 76
62 63 62 59 53 49 49 51 52 56 59 58 57 58 58 60 64 67 70 75 78 81 86 87 88 92 96 98 100 99 95 94 96 96 95 94 93 92 90 88 86 85 84 84 84 83 84 84 84 82 81 80 79 79 79 79 80 80 79 78 78 76 76
60 60 59 56 51 50 51 49 45 47 53 57 58 57 57 58 61 62 63 67 71 75 81 85 88 93 95 96 99 100 98 96 96 95 95 94 92 92 91 89 87 86 84 84 84 84 84 83 83 83 82 81 81 80 80 80 80 80 79 78 77 76 76
58 58 56 52 51 51 51 49 45 46 50 55 58 59 56 55 56 56 57 62 66 70 75 79 84 89 94 96 97 99 99 99 98 97 95 93 92 91 90 89 88 86 85 84 83 84 83 83 83 83 83 82 81 81 81 81 81 80 79 78 77 77 76
57 57 53 50 51 52 51 51 51 51 52 52 54 54 53 53 54 53 55 60 65 69 71 73 77 83 88 91 94 97 98 99 98 97 95 93 92 90 89 88 87 85 84 84 83 83 83 83 83 83 82 81 80 80 81 81 81 80 79 78 77 77 76
57 54 51 50 51 50 50 51 53 53 52 51 50 48 48 51 54 54 54 57 60 64 66 68 73 79 83 86 90 93 95 96 97 96 94 93 92 90 88 87 86 85 84 84 83 83 83 83 82 82 81 80 80 80 81 81 81 80 80 79 78 76 75
55 54 52 50 49 47 47 48 51 53 51 48 47 48 49 51 54 55 55 56 58 60 62 64 67 72 76 80 84 88 91 93 94 94 93 92 91 90 88 86 85 84 83 83 83 83 83 82 82 81 80 80 80 80 81 82 82 81 81 80 78 77 76
52 51 51 51 51 50 47 44 45 49 49 46 45 46 46 46 49 51 54 55 57 58 61 63 65 67 70 73 77 82 86 89 91 91 91 91 90 89 87 86 85 84 83 83 83 83 82 82 81 81 81 81 80 80 81 82 82 81 81 80 79 78 77
49 45 45 48 49 47 44 41 41 44 44 43 42 41 39 39 41 44 46 49 52 54 56 58 61 64 67 69 70 74 79 83 86 88 88 88 88 87 86 86 84 83 82 82 82 81 81 81 81 81 80 80 80 80 81 81 82 81 81 81 80 78 76
51 46 45 45 45 44 43 43 43 42 41 39 35 31 31 33 35 37 39 41 43 46 48 49 52 56 60 64 67 69 72 76 79 82 84 85 86 86 85 85 83 82 82 81 80 79 79 79 79 79 79 79 79 79 80 80 81 81 81 80 79 78 77

ECMWFFLT2_250_spd_021.txt.gz
Wind_Speed
43 41 44 48 50 53 58 62 62 61 62 64 65 63 61 60 56 51 49 46 42 41 41 43 42 38 37 37 35 34 34 33 32 32 32 33 35 35 34 32 31 29 28 29 29 29 29 28 27 26 24 23 22 22 21 19 19 20 21 23 24 25 25
44 44 43 44 45 49 54 55 58 65 69 69 68 65 63 63 58 53 52 51 47 45 44 45 44 40 39 40 39 38 36 35 34 34 34 35 36 35 35 35 33 31 30 30 30 30 29 29 28 28 27 26 24 23 23 22 21 21 23 24 26 26 26
44 46 45 42 41 46 50 52 57 66 70 69 67 66 65 64 60 56 56 55 52 48 45 46 46 43 43 44 42 41 40 37 36 37 36 37 37 36 36 36 34 32 32 32 32 31 30 29 29 30 29 28 27 25 25 24 23 23 24 26 27 28 28
46 46 44 41 40 43 48 52 56 59 63 66 68 68 67 66 64 62 60 58 54 50 48 49 48 46 47 48 45 44 43 40 40 39 38 38 38 36 37 37 35 34 34 34 33 31 31 31 30 30 30 30 30 29 28 27 26 26 26 27 28 29 30
49 44 41 42 43 44 47 51 53 53 55 61 66 69 68 68 67 65 63 60 55 53 53 53 51 49 51 52 49 46 45 44 44 43 40 39 39 39 39 38 37 36 35 34 34 33 33 32 31 30 30 31 32 32 31 31 29 28 27 28 30 31 32
50 44 43 44 45 46 48 49 49 50 52 57 62 66 67 68 69 67 67 63 57 56 57 57 56 55 54 54 51 48 48 48 47 45 42 41 42 42 42 41 39 38 36 35 36 36 35 33 31 31 31 31 32 33 34 34 33 30 28 29 31 32 33
55 50 47 44 44 47 49 48 47 49 51 54 57 59 61 67 70 70 72 69 62 59 60 60 60 59 57 55 53 52 52 51 49 48 46 44 45 46 46 45 42 39 38 38 38 38 36 35 34 34 34 34 34 33 33 33 33 32 31 31 32 33 34
60 56 48 42 43 46 48 45 45 49 50 50 53 55 58 66 71 73 75 72 65 62 62 63 63 62 60 57 55 55 56 54 53 53 50 47 47 48 49 49 46 42 41 40 40 40 39 38 37 37 37 37 36 35 34 33 34 34 34 34 33 35 36
62 60 50 41 40 43 46 46 45 48 50 50 53 55 58 63 65 69 75 73 67 65 66 66 65 64 64 61 56 57 59 58 57 57 54 50 49 50 50 50 48 45 44 44 43 43 42 41 40 40 40 39 38 38 38 38 38 38 37 36 36 37 38
62 60 56 51 47 46 48 50 48 48 50 52 53 54 58 60 59 63 71 73 71 69 68 69 68 67 67 64 61 61 63 62 60 58 55 53 53 53 52 52 50 47 47 47 47 46 46 44 44 43 43 42 41 41 41 41 41 40 39 39 39 40 40
64 63 62 63 60 52 48 50 51 50 51 52 53 55 56 55 55 59 64 69 73 73 71 72 72 71 69 67 67 65 64 63 61 59 58 57 57 56 55 54 52 51 51 51 50 49 49 47 47 46 46 46 45 44 44 43 42 41 41 42 42 42 42
68 67 66 67 66 59 49 47 50 53 53 52 53 54 52 52 56 58 57 62 69 73 74 76 75 74 72 71 71 69 67 66 64 61 61 60 60 59 58 56 55 54 55 53 52 51 50 50 49 48 49 48 47 47 46 45 44 43 43 43 44 44 44
71 70 70 69 68 64 54 48 49 53 56 54 51 49 49 53 57 55 52 58 64 68 73 78 78 76 75 75 76 73 70 70 69 65 63 63 62 61 60 59 58 57 57 55 54 53 53 53 51 51 51 51 49 48 47 46 45 45 45 46 47 47 47
72 72 72 70 70 68 61 53 50 52 54 55 53 49 48 53 56 53 51 57 62 64 68 74 78 79 79 79 79 76 72 72 73 69 66 65 65 63 62 62 60 59 59 58 56 56 56 55 53 53 53 52 51 50 48 48 47 47 48 49 50 50 50
75 73 73 73 73 71 67 60 54 50 51 54 55 52 50 52 54 53 54 57 58 59 62 68 77 81 81 81 81 78 74 74 76 73 70 68 68 66 64 63 62 62 62 60 58 57 57 57 56 55 54 54 52 51 49 49 49 49 50 51 52 53 53
78 73 75 76 74 75 74 65 52 45 48 54 55 53 51 50 50 52 55 56 54 55 59 65 72 79 82 82 82 80 77 76 77 77 74 73 72 70 67 65 64 65 65 63 60 58 59 59 58 57 57 56 54 52 51 51 51 50 51 53 55 56 56
82 77 77 76 77 81 73 58 51 52 54 56 55 52 49 49 51 54 56 55 53 55 60 63 66 72 79 83 83 83 81 80 80 79 77 76 76 73 70 68 67 66 65 63 61 61 61 61 61 61 60 59 58 57 55 53 52 52 54 56 58 59 59
88 83 80 79 83 80 64 56 62 66 62 58 56 53 50 51 55 56 55 55 55 56 60 62 63 67 73 80 85 86 85 84 83 81 79 79 79 77 74 72 70 68 66 64 63 63 63 64 65 64 62 59 59 59 58 56 55 55 56 58 60 61 62
94 89 86 86 84 74 65 67 72 70 65 62 59 55 52 53 57 56 54 55 57 59 61 62 62 64 69 76 83 86 86 86 85 83 81 81 82 79 77 75 73 71 69 66 65 65 66 68 67 65 63 61 60 60 59 58 57 58 59 60 62 63 64
98 94 92 89 81 75 75 77 74 69 69 69 62 58 57 58 60 60 57 55 56 59 63 63 62 61 63 68 75 81 84 85 85 84 83 83 83 81 79 78 76 74 72 71 70 70 70 71 68 65 63 63 63 62 61 60 59 60 61 62 64 65 67
102 97 94 90 84 81 81 78 73 71 73 72 68 63 61 62 63 62 57 53 53 57 61 63 62 59 57 60 66 72 77 82 85 86 85 85 84 84 84 82 80 77 75 75 75 75 75 73 69 67 65 64 64 65 65 64 63 63 63 65 67 68 69
104 99 96 92 87 84 81 78 76 76 77 75 71 66 63 65 65 61 56 53 54 55 58 59 59 58 58 58 60 65 71 78 83 86 87 87 87 88 88 88 85 81 79 78 76 76 78 76 72 70 68 67 66 66 66 66 66 65 65 67 69 71 72
106 101 98 94 88 84 82 81 80 80 79 76 70 68 67 66 65 62 56 55 56 56 56 57 58 59 61 61 61 65 71 76 81 85 87 88 90 91 91 90 88 84 82 81 79 78 80 80 76 73 72 70 68 68 67 68 68 68 67 69 71 72 73
108 103 99 94 89 86 85 84 83 82 80 75 71 71 69 64 64 63 57 54 55 56 56 59 61 61 61 62 62 65 70 73 76 80 83 86 89 91 91 90 88 86 84 83 82 81 82 83 80 78 76 73 71 69 69 70 70 70 70 71 73 73 73
109 104 99 94 90 88 86 85 84 84 81 76 73 73 69 62 59 58 54 51 52 52 54 58 61 61 61 61 63 64 66 69 72 75 79 82 85 88 91 92 91 90 89 86 84 83 83 84 83 80 79 77 73 71 71 71 72 74 74 75 75 75 75
108 103 99 95 91 89 87 85 85 84 80 75 72 70 64 58 52 50 51 50 49 50 53 56 60 62 62 62 62 62 63 65 67 70 73 76 80 85 89 91 92 92 93 89 85 83 84 85 83 80 81 81 76 72 71 72 74 77 78 78 79 79 79
106 101 99 96 91 88 87 86 86 85 79 74 71 66 59 53 48 47 49 51 50 51 54 56 59 60 60 60 60 60 61 61 63 66 68 71 75 80 85 88 89 92 94 92 86 84 84 83 81 80 83 84 78 73 72 73 76 79 81 82 83 83 83
103 99 96 93 90 88 88 87 84 82 79 73 69 64 56 50 47 49 51 53 53 53 54 55 55 54 55 56 57 58 59 59 59 61 65 67 71 75 80 84 86 88 91 90 87 85 83 81 79 81 85 85 79 75 75 76 78 81 83 85 86 87 87
98 96 93 90 88 85 82 81 80 78 74 69 63 59 54 49 47 50 53 54 52 51 51 51 52 51 51 53 54 56 56 56 56 58 60 63 68 72 75 79 81 82 83 84 83 79 77 76 78 81 85 84 80 78 78 79 80 82 85 88 90 91 92
93 93 90 88 88 79 66 65 71 73 68 64 59 54 51 50 49 49 52 53 51 49 49 49 50 52 52 52 53 53 52 53 54 55 54 56 63 68 70 71 74 75 75 75 72 67 65 68 72 77 82 83 78 73 71 73 77 82 87 91 93 94 95
89 89 84 81 83 74 57 52 61 66 63 60 58 54 50 50 51 51 52 53 52 49 49 49 50 51 52 51 51 50 49 50 51 50 49 51 57 62 62 62 63 65 65 65 62 57 57 63 67 70 76 78 72 64 59 62 69 77 83 88 92 93 94
79 82 82 79 73 63 54 51 54 57 58 56 54 54 51 49 50 49 49 51 51 49 48 48 47 48 48 49 49 49 49 49 49 46 45 46 50 54 54 54 54 54 52 51 48 46 50 59 62 63 67 70 66 60 56 57 62 68 74 79 83 87 90
74 75 79 78 67 55 52 51 44 43 50 52 51 53 54 52 52 51 49 49 49 48 49 48 46 45 45 45 46 48 48 47 46 44 41 41 43 45 44 41 39 36 35 35 35 38 45 50 52 54 57 58 58 59 61 61 62 64 67 71 75 77 79
78 74 72 69 62 52 48 47 41 37 44 52 53 53 54 55 55 53 52 51 50 48 49 50 48 46 44 43 43 45 46 45 43 41 38 37 36 35 31 28 26 26 27 29 30 34 41 42 41 42 44 46 48 54 61 67 68 64 61 64 70 71 72
76 75 70 65 58 47 37 37 41 41 42 50 54 54 54 55 54 54 54 54 52 50 49 49 49 48 47 45 45 45 45 44 40 36 34 34 33 31 30 29 26 24 27 29 28 32 38 38 34 34 38 44 52 58 61 64 68 67 64 64 68 73 76
70 71 68 62 58 48 35 34 41 41 39 44 50 53 56 57 53 50 50 49 48 49 50 49 49 48 48 48 47 46 45 44 40 36 35 36 35 33 33 31 27 26 28 27 25 29 35 34 31 34 44 53 59 63 64 66 68 69 69 67 68 70 73
66 66 63 59 58 55 46 41 43 42 39 41 45 49 53 56 53 49 47 45 44 45 46 48 48 48 48 48 47 46 45 44 42 40 40 40 39 38 38 35 31 26 23 20 19 23 30 34 37 43 53 61 65 68 70 70 69 69 70 70 70 71 71

ECMWFFLT2_250_spd_024.txt.gz
Wind_Speed
32 33 35 35 32 32 34 35 37 41 48 52 53 54 56 57 53 50 50 48 43 42 39 39 40 39 36 34 32 32 32 32 32 31 32 33 34 34 35 35 33 31 30 29 28 27 26 27 28 27 25 24 23 23 21 20 19 20 20 19 18 19 19
35 37 36 34 31 32 32 33 37 42 44 45 46 49 53 56 54 52 52 52 50 46 41 41 43 42 41 39 37 37 36 35 34 34 35 36 36 36 37 36 34 34 33 32 30 30 29 30 30 28 26 25 26 25 25 23 22 21 21 21 20 21 21
38 39 35 32 31 31 32 34 38 41 41 41 43 45 49 54 56 57 56 55 54 50 47 47 46 45 45 44 41 41 40 39 38 37 38 38 38 38 38 37 36 36 35 33 31 31 31 31 30 29 28 28 28 27 27 26 25 24 24 23 22 22 23
41 38 32 31 34 35 35 36 37 39 40 40 42 44 46 50 55 58 59 58 56 53 52 53 50 48 49 48 45 45 44 43 41 40 40 41 39 39 39 38 37 37 36 34 33 33 32 32 31 30 30 30 29 28 28 28 28 27 26 25 24 24 25
44 38 33 34 38 40 38 36 35 37 40 41 42 42 43 46 49 55 59 60 57 56 57 57 54 51 52 51 49 49 48 46 44 43 42 42 41 41 41 40 39 39 38 36 35 35 34 33 32 32 32 30 30 30 30 30 29 29 28 28 27 27 27
45 41 40 40 40 40 40 37 36 37 39 41 42 40 41 44 45 49 55 59 58 58 60 60 58 55 55 54 52 52 52 50 48 46 45 45 45 44 43 42 42 41 40 38 37 36 35 35 35 35 33 31 32 32 32 31 30 30 30 30 30 29 30
49 46 46 44 42 42 41 38 38 39 37 37 38 38 40 44 44 45 50 53 56 61 64 64 62 60 58 57 56 55 54 52 51 49 48 48 48 47 46 45 44 42 41 40 39 38 37 37 37 36 34 33 34 34 33 32 32 31 31 32 32 32 31
53 50 48 47 46 44 41 39 41 42 38 36 37 38 41 44 44 44 45 47 51 60 67 68 65 63 61 61 60 58 56 54 53 53 51 50 50 50 50 48 46 44 43 41 40 40 39 39 39 38 36 34 35 35 35 35 35 34 34 34 34 33 32
55 52 49 47 47 46 43 42 45 47 45 42 40 39 42 43 44 45 44 42 46 56 66 69 68 66 65 64 63 62 59 57 56 55 54 53 52 53 53 52 50 48 45 44 44 43 42 42 42 41 38 36 36 37 38 38 38 37 36 37 36 35 35
56 55 52 51 52 51 49 48 49 50 49 46 41 39 41 41 41 46 44 40 42 50 58 65 69 69 67 67 67 66 63 61 60 58 57 56 56 55 55 55 54 52 49 48 48 47 46 45 44 43 40 39 39 40 40 41 41 39 38 39 38 38 38
60 58 59 60 59 57 54 53 52 52 52 50 44 38 35 35 40 44 42 40 42 45 51 58 65 68 69 70 70 69 67 65 64 62 61 59 58 57 57 57 57 56 54 52 51 49 49 49 47 45 43 42 42 43 43 43 42 41 40 41 41 40 40
65 63 64 66 64 61 59 57 56 55 55 55 50 38 30 33 40 40 38 42 43 43 47 52 58 65 69 71 72 72 71 69 67 66 64 62 60 59 58 59 59 59 57 56 54 52 53 52 50 48 46 46 45 46 45 44 43 43 42 43 43 43 42
68 67 69 69 68 65 63 61 59 58 56 55 52 46 39 38 38 35 37 43 43 43 46 50 53 59 64 69 72 73 73 72 70 69 67 64 63 61 60 61 61 61 60 59 57 56 56 55 53 51 50 49 49 48 47 46 45 45 44 45 46 45 45
71 71 71 72 72 70 67 65 62 60 59 56 53 52 50 44 36 34 39 43 41 42 46 49 52 53 57 63 68 70 73 73 73 71 69 68 66 64 63 63 62 62 61 60 59 58 57 56 55 54 53 52 51 50 50 48 48 47 47 48 48 48 47
76 74 73 75 75 73 72 70 66 62 60 58 55 54 54 50 41 37 41 41 38 41 45 49 52 52 52 56 60 65 69 72 74 74 72 71 71 68 67 65 63 63 63 62 61 60 59 59 58 57 55 54 52 52 51 51 50 50 49 49 50 51 50
80 77 76 77 76 77 79 74 66 62 61 59 57 54 54 53 49 47 44 39 38 44 47 48 49 51 52 53 55 59 63 68 72 75 74 74 73 72 70 68 66 66 65 64 62 62 62 62 61 59 57 56 55 54 54 54 53 51 50 50 52 53 52
84 81 81 80 80 84 81 69 62 64 64 60 58 56 56 56 56 54 48 43 44 49 49 46 46 49 52 53 54 56 59 62 66 71 74 75 74 74 74 72 71 70 68 66 65 64 65 64 63 61 60 59 58 58 57 57 55 53 52 52 53 54 53
88 85 84 85 87 87 77 68 69 71 67 64 62 60 59 60 60 57 52 49 51 50 46 44 46 48 50 52 53 55 56 57 59 64 70 74 76 77 76 75 75 74 72 70 68 68 67 66 65 63 61 60 60 60 60 59 57 55 55 54 54 55 55
93 90 89 91 91 84 74 72 76 75 72 71 71 67 64 61 59 57 54 51 51 49 45 44 45 46 47 49 51 53 54 54 55 58 63 68 74 77 77 78 78 77 76 74 72 71 69 68 66 64 61 61 62 63 62 60 58 57 57 56 55 55 56
100 97 95 95 91 83 76 75 76 77 79 79 77 74 70 65 60 58 56 51 49 49 47 45 44 44 45 48 51 53 54 54 55 56 58 61 66 71 75 78 80 80 79 77 75 74 73 71 69 66 63 63 64 64 62 61 59 59 59 58 57 56 56
106 102 100 98 93 87 81 78 78 81 84 84 81 79 74 68 64 61 57 52 50 49 49 47 46 45 46 50 52 53 54 55 56 57 57 59 61 65 69 74 79 81 81 79 77 76 76 76 74 70 69 68 67 65 63 62 60 60 59 58 57 57 57
110 106 104 102 98 91 85 82 82 84 86 86 84 81 78 73 68 63 58 54 52 52 52 52 49 47 49 52 53 52 53 55 56 57 58 59 61 63 65 69 75 79 81 81 80 80 79 79 78 75 74 73 71 67 65 63 62 60 58 57 58 58 58
114 110 107 105 102 96 90 88 87 86 87 88 85 84 82 75 68 63 60 57 55 56 57 55 52 50 51 52 53 54 54 55 56 57 57 58 61 62 63 65 69 74 78 81 82 81 80 79 77 76 75 76 75 71 67 66 64 61 58 58 59 60 60
116 113 109 107 106 102 97 95 93 90 89 87 85 86 84 76 67 64 63 61 60 59 59 58 55 53 52 53 55 56 56 56 56 58 59 60 61 61 61 61 62 66 71 77 80 81 81 81 80 79 78 79 78 74 71 69 66 61 59 60 61 62 62
118 115 112 110 109 107 102 99 96 93 90 87 86 87 85 77 70 67 66 65 64 62 61 60 57 54 53 55 56 57 56 57 57 58 60 62 62 61 60 58 59 61 65 70 76 79 81 82 84 84 83 82 81 78 75 72 67 63 62 62 63 64 64
121 118 115 113 111 110 107 103 100 95 91 88 89 89 84 78 74 72 71 69 66 65 64 62 58 54 53 54 56 57 57 58 58 57 59 62 63 61 60 58 59 60 62 64 69 74 78 81 83 85 86 84 82 81 79 74 69 66 66 67 67 67 67
124 121 118 115 109 106 104 102 100 98 95 92 91 88 83 79 77 75 74 72 70 68 67 64 60 57 55 55 56 56 57 58 59 58 58 61 63 62 61 60 59 60 61 63 65 68 71 75 79 82 85 85 84 83 81 76 72 71 71 71 71 71 72
125 123 121 116 109 104 100 97 97 97 96 94 91 87 84 81 78 77 76 74 71 69 67 65 62 59 57 58 58 57 57 58 58 59 59 61 63 63 62 61 60 60 61 63 64 64 65 67 70 75 79 82 83 84 82 79 76 75 74 73 73 74 75
123 123 120 115 109 103 100 98 97 97 96 93 90 88 85 83 79 78 76 72 69 66 65 64 63 61 59 59 58 58 57 57 58 59 60 61 63 63 62 61 61 62 62 63 64 62 61 61 62 65 70 75 79 81 82 80 79 77 76 76 76 76 77
119 119 116 112 103 95 94 95 94 94 95 94 91 88 85 82 80 78 76 73 69 67 65 64 64 63 59 56 55 56 58 58 58 59 61 62 63 63 63 62 62 61 62 62 62 61 58 57 58 59 62 66 71 74 76 77 78 79 79 78 77 78 80
114 111 109 106 92 75 76 84 85 84 87 89 89 89 86 82 81 78 76 74 72 69 68 67 65 62 59 55 54 55 57 60 60 60 61 62 62 63 63 62 61 60 60 61 61 60 57 55 55 56 57 60 63 66 69 71 75 79 80 78 77 78 80
111 108 108 108 94 73 68 76 80 80 82 82 81 82 81 80 80 78 74 73 71 70 70 69 65 61 58 56 55 54 57 61 62 61 61 61 61 62 61 59 58 58 58 59 59 59 57 55 54 53 54 56 59 61 64 68 73 78 77 73 72 72 71
110 108 107 109 102 89 82 83 80 79 82 82 79 78 76 73 73 72 71 71 70 69 69 67 64 60 56 54 54 55 56 60 61 61 61 61 62 61 59 57 56 55 55 55 54 54 55 54 53 52 52 53 55 58 62 67 71 71 67 63 63 63 61
108 107 104 103 101 99 98 95 86 78 79 81 80 79 76 72 68 68 68 66 65 64 63 61 60 57 53 51 52 55 56 58 60 60 60 60 60 59 57 56 55 54 53 52 51 50 51 50 49 49 49 48 50 55 62 67 67 63 56 53 53 51 49
105 104 100 98 99 101 99 94 86 79 76 75 76 75 72 68 66 66 63 58 57 58 57 56 56 56 53 50 51 54 55 56 58 59 58 57 57 56 55 55 54 53 52 50 47 45 46 46 46 45 43 44 49 54 58 59 57 51 46 44 45 43 39
101 101 98 96 98 99 92 84 80 78 72 65 64 64 61 60 62 64 60 56 55 56 56 55 55 55 54 52 52 53 54 55 56 57 56 55 55 54 54 54 53 53 51 46 42 42 43 43 42 40 40 44 48 49 48 46 43 40 38 38 42 43 43
97 97 97 96 98 97 87 75 72 73 67 56 51 51 52 53 58 63 62 58 57 56 56 55 54 53 53 54 54 55 55 55 56 56 55 54 54 54 54 53 52 50 47 43 41 41 40 40 39 38 38 39 40 41 40 39 38 39 39 40 42 46 51

ECMWFFLT2_250_spd_027.txt.gz
Wind_Speed
30 30 31 27 20 21 21 15 15 22 26 23 21 22 27 34 38 41 45 45 43 43 42 41 39 36 35 34 33 31 30 28 28 29 30 30 30 31 32 32 31 29 28 27 27 26 25 25 25 24 23 21 20 19 19 17 17 17 17 17 18 19 20
35 34 31 25 20 20 18 15 21 26 22 18 18 18 21 27 33 40 47 49 47 45 44 45 44 41 39 38 37 36 34 32 31 32 33 33 33 33 34 34 33 32 30 30 30 30 29 28 27 26 25 24 23 22 22 21 20 20 21 21 21 21 21
38 36 30 24 21 21 21 23 26 24 19 19 19 17 19 23 28 34 41 46 47 47 47 49 49 46 44 42 41 40 39 36 35 35 35 35 35 35 35 36 36 35 33 33 33 33 31 30 30 29 28 27 26 25 25 24 23 23 24 24 24 24 24
40 37 30 25 26 28 27 27 26 23 21 21 20 18 18 19 22 27 34 39 44 49 52 52 52 50 48 46 44 43 42 41 41 39 37 37 37 36 37 37 38 37 36 36 36 35 34 33 32 32 31 30 29 28 28 27 26 26 27 26 27 27 27
42 37 31 30 33 33 31 28 26 25 23 21 19 16 16 16 18 22 26 31 38 47 53 55 54 53 51 49 47 46 45 44 44 43 41 40 39 38 38 39 39 39 39 39 38 38 37 36 35 35 35 34 32 30 30 29 28 29 29 28 28 29 29
43 40 39 38 39 38 34 30 28 27 24 20 17 13 14 16 16 18 21 24 32 42 48 53 56 55 53 52 50 49 48 47 47 46 45 43 42 41 40 40 41 40 40 40 40 39 38 38 38 38 38 36 34 33 32 31 31 31 30 29 30 30 30
47 47 46 44 43 42 37 32 30 28 25 21 17 16 18 18 17 19 20 21 30 38 42 48 55 56 56 55 53 52 52 51 50 48 47 46 45 45 43 42 42 42 42 42 40 39 39 39 40 40 40 38 37 35 33 33 33 32 31 31 31 31 31
54 52 50 47 44 43 38 34 33 32 29 27 25 24 24 21 17 19 20 21 30 37 38 41 47 53 56 57 56 56 56 55 53 51 49 49 48 48 48 46 44 43 43 42 41 41 41 41 41 41 41 40 39 37 36 36 35 33 33 33 33 32 32
58 56 52 48 45 45 42 40 38 37 36 35 32 31 27 21 18 19 21 22 28 37 39 38 40 45 51 56 59 59 58 58 57 55 52 51 51 51 51 50 48 46 45 43 43 43 43 43 43 42 42 41 40 39 38 38 37 35 35 35 35 33 33
60 57 54 51 51 51 48 45 43 42 42 40 37 35 29 22 21 21 20 22 28 37 42 40 38 39 42 49 57 60 61 60 59 57 55 54 53 52 53 53 52 50 48 46 46 45 45 44 44 43 43 42 42 41 40 39 38 37 37 37 36 35 34
62 58 57 58 58 57 51 48 47 45 45 44 41 37 28 23 24 22 20 24 29 34 42 43 40 38 37 41 48 55 60 62 61 59 58 58 56 55 55 56 55 53 52 51 50 48 47 46 45 45 44 43 43 42 41 41 40 38 38 38 38 37 35
64 61 61 62 62 58 54 52 51 48 48 48 44 37 31 31 29 23 24 29 28 31 40 44 42 39 36 36 39 44 52 59 62 62 61 60 60 59 58 57 56 55 54 55 54 52 51 49 48 47 46 45 44 43 43 42 41 40 40 40 40 39 38
67 64 64 66 66 63 59 58 56 54 53 51 47 41 38 37 32 28 32 33 27 28 36 41 42 40 37 35 34 37 42 50 57 62 63 64 63 62 62 61 60 58 57 56 56 55 55 53 52 51 50 49 47 46 45 45 44 43 43 42 42 42 42
70 68 68 69 70 68 65 63 60 58 57 54 51 47 44 41 36 36 37 34 28 28 33 36 39 40 40 38 35 35 38 41 47 55 62 66 67 66 65 64 63 62 61 59 58 57 57 56 55 55 53 53 51 49 48 48 47 47 46 45 45 45 45
72 72 71 73 74 72 70 68 64 62 59 56 53 51 48 44 41 41 40 35 32 32 33 34 37 39 42 42 39 38 38 38 41 46 53 62 67 68 68 67 66 66 65 63 61 59 58 58 58 58 58 57 56 54 52 51 50 50 49 49 48 48 48
75 76 77 77 77 76 75 71 65 61 59 57 55 54 52 48 46 45 41 35 35 37 36 36 38 40 42 43 42 42 40 40 40 41 45 52 59 66 70 70 68 67 68 67 65 62 61 60 60 60 61 61 60 58 56 55 55 53 52 52 51 50 50
77 80 81 80 80 82 78 68 61 61 61 59 59 59 57 53 51 48 42 38 41 42 39 37 39 40 41 42 43 43 42 41 41 40 41 44 49 56 63 68 70 70 70 70 69 67 65 64 63 63 64 63 63 62 60 59 58 56 55 55 54 53 53
81 84 85 83 83 83 74 64 64 66 65 64 64 63 61 58 55 51 46 45 46 44 41 41 42 42 42 42 41 40 40 41 41 41 42 43 45 48 53 59 66 71 73 73 73 72 70 68 67 67 66 65 65 65 63 61 60 58 59 58 57 56 55
87 88 90 87 85 80 71 69 72 72 70 71 71 68 65 62 58 53 50 48 47 46 46 46 46 45 43 41 39 39 40 41 41 42 44 45 46 47 49 52 58 65 71 75 76 76 74 72 71 70 69 68 68 67 65 63 61 61 61 60 59 59 58
91 92 93 91 85 78 74 76 77 76 78 78 74 69 66 62 58 55 53 51 50 50 49 48 48 47 44 41 41 41 42 44 43 43 44 47 48 49 51 52 54 59 65 70 75 77 78 77 75 73 72 72 71 70 68 66 64 64 63 62 61 61 60
94 94 95 92 86 81 79 81 81 81 81 79 74 71 67 63 61 58 55 54 54 53 52 52 52 51 48 47 45 43 44 45 45 45 45 47 49 51 52 53 54 56 59 63 69 75 78 79 78 76 76 76 76 74 72 69 68 68 66 64 62 62 62
97 96 96 93 89 85 83 84 83 82 80 79 77 74 70 66 63 60 58 57 57 57 56 55 54 54 54 53 49 46 46 47 47 47 48 49 50 51 53 54 55 56 57 59 63 69 74 77 79 79 80 80 79 78 75 73 72 71 69 66 65 64 64
100 98 96 94 91 88 85 86 85 82 80 80 80 78 74 68 64 62 62 61 60 60 60 59 57 57 58 56 53 51 50 50 49 50 50 51 51 51 52 54 55 57 58 58 59 63 67 71 76 80 82 82 82 80 78 76 75 74 72 69 69 68 68
102 98 96 96 94 90 87 87 87 82 80 81 83 81 75 69 66 66 66 65 64 63 63 62 60 60 60 59 59 57 55 54 53 51 51 52 52 51 51 53 55 57 58 59 59 60 61 64 70 75 79 82 82 82 80 79 78 76 75 73 74 74 73
104 101 99 98 96 93 90 90 89 85 82 84 85 82 76 72 72 71 69 68 68 67 66 65 63 63 62 62 62 61 59 57 55 53 53 53 52 51 51 52 53 56 57 59 59 60 60 62 64 68 72 76 79 81 82 81 80 79 79 79 79 79 77
107 104 102 100 99 96 93 93 91 88 86 86 87 84 80 77 76 75 74 72 71 70 70 69 66 65 65 65 64 64 63 61 58 56 56 55 53 52 52 52 53 55 56 57 58 59 60 60 62 64 66 69 73 78 81 81 81 81 82 83 83 83 81
110 107 104 102 100 98 96 95 94 90 89 90 89 85 82 80 79 78 77 76 75 74 73 72 70 68 67 67 67 67 66 64 61 59 58 57 56 54 54 54 55 55 56 57 57 58 59 60 61 62 63 65 67 71 75 77 80 82 84 85 86 86 85
112 109 106 102 100 99 98 96 95 92 90 90 89 87 84 82 82 82 81 80 79 78 76 74 73 71 70 70 70 69 69 66 63 62 61 59 59 58 57 57 57 57 58 58 58 59 60 60 61 62 63 63 63 64 66 70 73 77 81 84 86 87 87
113 111 108 105 102 101 100 98 95 93 92 90 88 87 85 83 82 83 84 84 83 81 80 78 77 75 74 74 73 72 71 69 66 65 64 62 61 61 60 59 59 59 60 60 60 60 61 61 62 63 63 63 62 61 62 64 66 70 74 79 83 85 87
116 114 111 109 105 100 99 99 96 91 90 89 88 86 85 86 86 86 85 87 87 86 83 79 79 79 77 77 77 75 73 71 69 67 66 65 64 63 62 62 61 61 62 62 62 61 61 61 62 62 62 62 61 60 60 61 62 65 68 73 77 81 83
119 117 113 112 108 97 91 92 92 91 87 80 75 73 70 71 79 85 87 88 90 91 90 84 81 81 81 80 80 78 76 74 71 70 69 68 66 65 63 63 62 62 62 64 64 63 62 62 62 61 60 59 59 59 59 59 60 62 64 67 71 74 77
123 121 117 116 111 98 89 86 82 81 79 68 56 53 50 49 58 69 78 84 86 86 89 87 82 82 84 83 82 81 78 76 73 71 70 68 67 66 64 63 63 62 61 63 64 65 64 63 62 61 59 57 57 57 57 58 59 60 62 63 65 68 71
126 123 120 119 110 94 88 90 82 75 75 70 59 51 47 46 50 56 65 76 80 79 80 81 80 80 83 85 84 83 80 78 75 72 70 68 66 65 63 62 62 62 61 62 63 64 64 63 62 61 59 58 57 57 57 58 58 59 60 61 62 64 66
126 124 122 121 110 88 80 90 93 83 80 82 78 66 53 48 51 56 62 69 75 77 78 79 79 79 80 82 83 83 82 79 75 71 69 67 65 64 63 63 63 63 63 63 63 64 64 63 62 62 61 59 58 57 57 56 56 56 57 58 59 59 61
124 122 118 120 116 93 78 86 96 88 80 82 83 77 67 59 58 64 70 72 73 74 76 78 79 80 80 81 81 80 79 76 73 71 69 67 66 66 66 65 65 64 64 64 64 64 63 63 63 63 62 60 59 58 57 56 55 53 53 53 54 54 56
117 116 114 115 115 99 84 87 94 89 80 74 70 69 69 66 63 66 72 74 74 74 74 75 77 80 82 83 82 79 76 73 71 70 69 67 67 68 67 66 65 65 65 65 65 64 64 63 63 63 62 60 59 59 58 56 54 52 51 50 49 48 47
110 110 109 109 108 101 93 91 92 91 86 77 70 68 65 61 60 64 69 73 75 76 75 73 73 74 75 76 77 77 76 73 71 70 68 67 67 67 67 66 66 65 65 65 65 65 65 64 64 64 62 60 59 58 57 56 53 52 51 49 45 41 38

ECMWFFLT2_250_spd_030.txt.gz
Wind_Speed
37 36 34 30 26 26 23 18 20 24 23 20 19 22 26 30 35 41 45 45 48 51 47 44 42 40 39 36 34 34 32 30 27 26 27 27 27 27 28 29 29 28 27 27 27 27 27 28 29 28 27 26 24 23 22 21 20 19 18 18 19 19 19
39 37 33 27 25 24 20 19 24 23 17 15 17 20 23 28 34 40 44 47 50 52 51 48 46 44 43 41 38 36 35 33 31 30 30 29 29 28 29 30 30 30 29 29 28 28 28 29 28 27 26 25 24 23 22 21 20 19 19 20 19 19 19
41 37 31 27 25 24 23 25 25 18 16 17 17 18 21 25 29 33 37 43 49 54 55 52 48 47 46 43 41 39 37 36 36 34 32 31 31 29 30 31 31 31 31 31 30 29 29 29 28 27 25 25 25 24 23 22 22 21 21 21 20 20 21
42 37 30 27 27 27 27 27 23 18 19 20 19 19 19 21 24 28 32 39 47 54 56 53 50 49 47 45 42 40 39 39 38 37 35 34 33 32 32 32 32 33 33 32 31 31 31 30 29 28 27 28 27 26 25 25 24 24 24 23 23 23 23
43 37 32 30 31 32 30 27 25 22 22 21 19 18 18 20 23 26 29 35 43 48 51 52 51 50 48 47 45 43 41 40 40 39 37 36 34 34 34 33 33 34 34 34 33 32 32 32 31 30 30 30 29 28 28 28 27 27 26 26 26 26 26
44 40 39 38 37 36 33 29 27 26 24 20 16 15 17 19 20 22 23 28 36 39 40 45 49 50 50 49 48 46 44 42 41 40 39 38 37 36 36 35 35 35 35 35 35 34 34 33 33 33 33 32 31 31 31 31 31 30 29 28 28 28 29
48 46 45 44 42 39 36 31 29 27 24 19 15 15 17 19 18 18 16 19 30 34 32 36 43 47 50 51 50 49 48 46 45 43 42 40 39 39 38 37 36 36 36 37 37 36 36 35 35 35 35 35 35 34 34 34 34 33 32 32 31 32 32
54 51 50 48 45 42 37 32 31 29 24 22 21 20 20 18 16 16 14 16 28 31 27 29 34 39 44 49 52 52 51 50 49 48 46 44 42 41 40 39 39 38 38 38 38 38 37 38 38 38 38 38 38 37 37 37 38 36 35 35 35 35 34
58 56 53 50 47 44 39 37 36 33 31 29 27 25 22 19 16 16 14 15 27 31 28 26 29 33 37 43 50 54 54 53 52 51 50 47 45 44 43 43 42 41 40 40 39 39 39 39 40 40 40 40 40 40 40 41 40 39 38 38 37 37 36
61 59 56 53 51 48 45 43 41 39 38 35 33 31 28 23 21 20 17 18 25 31 31 28 28 31 33 36 42 50 54 55 54 53 52 50 48 47 47 46 45 45 44 43 42 42 41 41 40 41 41 41 41 41 41 42 42 41 40 40 39 39 39
64 63 60 57 55 52 49 47 45 43 41 39 38 35 29 26 26 23 22 23 25 28 32 30 27 27 29 31 34 41 49 54 55 55 54 53 51 50 50 49 48 48 47 46 46 45 44 43 43 42 42 42 42 42 42 42 41 41 41 41 41 41 41
66 65 63 62 59 56 53 52 49 46 45 43 39 34 30 31 30 26 26 29 27 27 33 33 28 26 26 27 28 31 38 45 51 53 54 55 54 54 54 53 53 52 50 49 49 49 48 47 46 45 45 44 44 43 43 42 42 42 42 42 43 43 42
69 67 67 66 63 60 58 55 52 50 49 45 40 36 36 36 31 28 32 32 28 28 31 34 33 28 25 25 25 26 29 34 40 45 50 54 56 57 58 57 56 56 54 53 52 52 52 51 50 49 48 47 47 46 45 45 44 45 44 44 44 44 44
72 71 70 69 68 64 61 58 55 54 52 48 44 41 42 40 35 33 35 32 28 29 31 34 36 33 27 25 24 24 26 28 32 36 41 46 52 56 60 60 59 59 58 57 56 55 54 53 53 53 52 51 51 50 49 48 47 47 47 46 46 45 46
75 74 73 72 71 67 63 61 59 56 54 52 49 47 46 43 39 38 37 33 30 32 34 36 39 37 32 28 27 27 27 28 29 31 33 36 41 48 54 58 60 61 61 60 59 58 57 57 56 55 55 55 55 54 53 52 52 51 50 50 49 49 50
77 77 76 74 72 69 66 63 61 60 58 56 53 52 49 46 44 43 40 35 34 38 42 41 41 40 35 32 31 30 29 30 30 29 30 32 34 38 43 48 53 58 61 63 63 62 62 61 60 59 59 58 58 57 57 57 57 55 53 53 52 52 53
80 80 79 76 74 72 67 65 65 64 62 59 58 56 53 50 48 46 41 38 41 45 46 44 42 41 38 36 35 32 31 32 31 30 30 31 32 34 36 38 42 47 53 59 64 66 66 65 64 64 64 62 61 60 60 60 60 59 57 56 56 55 56
84 84 82 79 77 72 67 67 69 66 63 62 61 59 56 53 51 47 45 45 48 49 47 45 44 43 41 39 37 35 33 32 32 32 32 32 33 34 35 36 37 40 44 49 56 62 67 69 68 68 67 66 65 64 63 62 62 61 60 59 59 59 58
87 87 86 83 78 70 68 71 71 68 67 67 65 61 58 55 52 50 50 50 50 50 50 48 46 45 43 40 38 36 34 33 34 35 35 35 35 35 37 38 37 39 42 44 47 53 59 65 69 70 70 70 69 68 67 66 65 64 63 62 61 61 61
90 89 88 85 78 72 73 75 72 72 73 71 67 62 58 56 55 54 53 52 53 53 53 51 50 48 46 43 40 38 37 36 36 37 37 38 38 38 39 39 39 40 42 43 46 48 51 55 60 65 70 72 73 71 70 69 69 68 66 64 64 64 64
91 90 89 86 80 78 78 76 74 75 75 72 67 61 57 58 59 57 55 55 55 55 55 55 54 50 48 46 43 41 40 40 39 39 40 40 40 40 41 41 41 41 42 44 46 47 48 50 52 57 62 67 71 72 72 72 71 71 69 68 67 67 67
92 90 88 86 83 81 79 77 76 76 76 73 68 62 59 61 61 58 57 57 57 57 57 57 56 53 50 47 45 44 44 43 42 41 41 41 41 42 43 44 44 44 45 46 47 48 49 50 51 53 56 59 62 66 69 71 73 73 73 72 72 72 71
94 91 88 85 83 80 79 79 78 77 76 74 71 66 63 63 62 59 58 59 58 58 59 58 58 55 51 49 48 49 48 47 45 44 43 43 43 43 43 44 45 46 47 49 50 50 51 52 53 53 53 53 54 57 61 65 68 71 72 74 75 76 76
94 92 88 85 83 80 81 81 80 78 76 75 75 70 64 63 64 62 62 62 62 62 62 61 60 57 54 53 53 52 52 51 49 48 47 47 46 46 46 46 46 47 48 50 51 51 53 54 54 53 53 54 53 54 56 58 60 63 67 71 75 78 80
94 93 90 86 84 82 83 84 82 80 79 78 78 72 65 66 69 68 67 67 66 65 65 64 62 61 59 58 56 55 55 54 53 51 51 50 49 49 49 48 48 48 49 50 51 52 53 54 54 54 55 55 55 55 55 55 55 58 62 66 71 75 77
96 95 92 88 86 85 85 86 85 84 82 80 78 73 70 72 74 72 71 71 70 69 68 66 65 64 63 62 60 58 58 57 56 55 54 53 52 52 51 51 50 50 51 51 51 51 53 54 54 54 55 56 57 57 56 55 56 58 61 63 65 68 71
96 96 93 89 85 84 86 88 87 86 84 81 78 77 76 76 77 76 75 74 73 72 71 69 68 67 65 64 62 61 60 59 59 58 57 57 56 55 55 54 54 54 54 53 52 52 53 54 54 54 55 55 57 57 57 58 59 60 60 61 63 64 66
98 96 92 86 83 85 90 91 89 87 85 82 80 80 79 79 79 79 78 77 76 75 73 72 70 68 67 66 64 63 63 62 61 60 60 60 60 59 59 58 57 57 57 56 54 54 54 54 54 55 55 56 56 57 58 60 61 61 61 61 62 63 64
99 95 90 87 88 92 94 93 91 89 86 84 83 82 81 81 82 82 81 80 78 77 75 74 72 70 70 68 67 66 65 64 63 63 62 62 62 62 62 61 61 61 60 60 58 56 56 56 55 56 57 57 58 59 60 61 62 62 62 61 61 62 63
100 97 93 91 92 94 95 93 91 89 87 85 84 84 83 82 83 84 84 83 81 79 77 76 74 73 72 71 70 69 68 66 66 65 65 65 64 64 64 64 64 64 64 64 63 61 59 58 58 57 58 58 59 60 61 62 63 63 63 62 62 62 63
101 99 95 92 93 95 94 92 91 89 88 87 86 86 85 84 84 85 85 84 83 81 79 78 77 76 75 74 73 72 71 70 69 68 68 68 67 67 67 67 67 67 68 68 67 65 64 63 61 60 59 59 59 60 61 62 64 64 64 63 62 62 62
102 100 95 93 94 95 93 91 90 89 88 88 88 87 86 86 86 86 86 85 84 82 81 80 79 77 76 75 75 75 74 73 72 72 72 72 71 71 70 70 70 70 71 71 70 69 68 66 65 63 62 61 60 60 61 62 63 65 65 64 63 62 61
103 101 97 94 94 95 92 89 88 88 88 88 87 86 87 87 87 86 85 85 84 84 84 83 82 80 80 78 78 78 77 77 76 75 74 74 75 75 74 73 74 74 74 74 74 72 71 70 68 66 65 63 62 62 62 62 63 65 65 64 63 62 61
104 103 100 96 94 94 92 88 87 87 87 87 87 85 84 84 84 85 85 85 86 86 86 85 83 82 82 81 79 77 75 75 76 77 77 77 78 78 77 77 77 77 77 77 77 76 74 72 70 69 67 66 65 64 64 64 65 66 66 65 63 62 62
107 105 103 99 96 95 93 90 87 86 87 88 88 85 80 76 76 77 77 79 82 83 83 85 86 85 83 82 79 74 71 69 70 71 75 79 81 81 81 80 80 79 79 79 79 79 77 75 73 71 69 68 67 66 66 66 66 67 67 65 63 62 61
109 108 106 103 100 98 96 93 89 87 89 90 89 86 81 76 74 73 69 68 70 70 71 75 80 81 80 78 74 68 66 67 66 65 68 72 77 81 83 82 81 80 81 82 81 80 78 77 75 73 71 70 69 68 67 67 67 67 67 66 63 61 60
112 111 110 108 105 102 100 96 91 88 90 91 89 86 82 78 77 78 76 73 70 67 66 66 66 67 68 67 63 61 64 65 64 64 64 66 70 75 79 79 78 78 80 82 82 80 79 78 77 75 73 72 71 70 69 68 68 68 69 67 64 61 59

ECMWFFLT2_250_spd_033.txt.gz
Wind_Speed
47 45 43 40 36 35 31 25 24 27 28 25 25 27 28 31 36 42 47 50 52 52 50 47 44 42 39 37 35 32 30 28 25 24 23 23 24 24 25 27 29 29 29 30 30 30 31 31 32 31 30 29 28 29 29 28 27 24 22 22 22 22 22
51 50 46 41 36 34 30 27 28 29 24 21 23 26 26 28 34 40 45 49 51 52 53 51 48 45 43 41 39 37 33 30 29 27 25 24 25 25 26 27 28 28 29 30 31 31 32 32 32 32 31 29 29 29 29 29 27 25 24 23 23 22 22
52 49 44 37 31 29 30 30 30 26 21 20 23 25 27 29 33 37 40 45 48 52 55 53 49 47 46 43 41 40 36 33 32 31 28 26 26 26 27 27 28 30 30 31 31 31 31 32 32 32 31 30 30 30 29 29 27 26 26 25 23 23 22
51 47 41 34 31 30 32 32 29 27 26 25 25 27 27 28 31 33 34 38 44 50 52 51 49 48 46 44 42 40 38 36 34 32 30 28 27 27 28 28 29 30 31 31 31 31 31 31 31 31 31 31 31 31 30 29 28 28 27 25 24 23 23
51 45 39 36 36 35 35 33 31 32 32 30 29 29 28 28 31 32 33 35 40 45 48 49 49 48 47 45 43 41 40 38 35 33 32 31 29 28 28 29 30 31 31 31 31 31 31 30 30 30 31 32 33 32 32 30 30 29 28 26 25 25 24
50 45 43 43 42 40 39 37 35 35 36 34 32 31 31 31 30 32 34 35 35 38 42 45 47 48 48 48 46 44 43 40 39 37 34 33 32 31 30 30 31 32 32 33 33 32 31 31 31 31 32 33 33 33 32 31 31 31 29 28 27 26 26
52 49 48 48 45 43 42 39 37 36 35 33 31 30 31 31 28 28 30 30 30 30 33 36 39 43 47 49 50 48 47 45 43 41 39 38 36 35 33 32 31 32 32 33 33 33 32 32 33 33 33 33 34 34 33 33 33 33 31 30 30 29 29
57 54 52 51 48 45 42 39 37 36 34 33 32 32 31 28 25 23 21 24 27 26 25 28 30 34 40 46 50 51 50 48 46 45 43 41 40 39 38 36 34 33 32 33 33 34 34 35 35 36 36 36 36 35 35 36 36 35 33 33 33 33 32
60 57 54 52 48 45 42 39 38 37 37 36 35 33 30 25 22 21 18 23 28 26 23 25 26 28 33 40 47 51 52 51 50 48 46 44 43 42 40 40 38 36 35 34 35 35 36 37 37 38 38 38 38 38 38 38 38 37 36 35 36 36 35
62 58 54 52 49 46 43 41 40 40 40 39 36 34 31 27 24 22 20 26 31 28 26 27 26 26 29 34 40 47 51 53 52 51 48 47 45 44 42 41 40 39 39 38 37 37 37 38 39 39 40 40 41 41 41 41 41 39 38 38 39 39 38
63 61 58 56 55 51 47 45 44 43 43 41 39 36 33 30 27 25 24 29 33 30 28 27 27 27 27 29 34 40 46 51 52 52 51 49 48 47 45 44 43 42 42 41 41 40 40 40 40 40 41 42 42 43 43 43 42 41 41 41 42 42 42
66 64 63 61 59 55 52 50 48 47 46 43 41 37 35 34 31 28 29 31 32 31 30 28 27 28 28 28 30 34 39 44 48 51 52 52 52 51 49 48 48 47 45 45 44 43 43 43 42 41 41 42 43 43 44 44 43 43 43 44 44 44 44
68 67 66 64 62 59 56 54 52 50 49 46 42 40 39 38 34 32 35 34 31 32 31 28 28 28 28 28 28 29 32 36 40 43 46 50 52 53 53 52 51 51 49 48 47 46 46 46 45 44 44 43 43 44 45 45 44 44 44 45 45 46 45
71 70 69 67 65 63 60 57 55 54 52 50 46 44 42 40 37 36 37 34 30 32 33 31 30 29 27 27 26 27 29 31 33 35 37 41 46 51 54 54 54 54 53 52 51 50 49 49 49 48 47 47 46 46 47 46 46 46 45 45 46 46 46
74 73 72 70 68 66 63 61 58 56 55 53 50 47 45 44 41 39 38 34 32 35 37 37 35 32 29 27 27 27 28 29 31 33 34 36 40 44 49 52 54 55 55 54 54 53 52 52 52 51 51 51 50 50 50 49 49 48 47 47 48 48 48
78 76 75 73 71 69 66 64 62 59 58 56 54 51 49 48 46 43 40 36 35 40 42 42 41 37 32 29 28 28 28 29 31 32 33 35 37 39 42 46 50 52 54 55 56 56 56 56 55 55 54 54 53 53 53 53 52 51 50 50 50 50 51
81 79 78 76 74 72 69 67 65 63 61 59 58 56 52 51 50 47 43 40 42 46 46 43 42 41 36 33 32 30 29 28 28 30 32 34 35 36 38 40 44 47 49 52 55 57 58 58 58 58 57 57 57 57 56 55 54 53 53 53 53 54 54
84 83 81 79 78 75 71 69 67 66 64 62 61 58 56 54 53 51 48 46 47 49 48 44 44 45 42 38 35 32 31 29 29 29 30 32 33 34 35 37 39 41 44 47 50 54 56 58 59 59 59 60 60 59 58 57 56 55 56 56 56 57 57
86 86 84 83 80 76 73 71 70 69 67 65 63 61 60 59 57 55 52 49 49 50 50 48 48 48 46 41 37 34 33 32 31 31 31 31 32 33 33 35 37 39 41 43 45 49 53 55 57 58 60 61 61 61 60 60 59 59 59 59 59 60 59
88 89 88 84 80 77 75 74 73 72 69 68 66 65 64 62 60 57 54 52 52 52 52 52 51 51 49 44 40 38 36 35 34 33 33 33 33 33 34 35 36 38 39 41 42 45 48 50 53 54 56 58 59 60 61 62 62 62 62 62 63 63 63
90 90 89 84 81 79 78 77 76 74 72 71 70 68 67 65 62 59 57 56 55 54 55 55 55 53 50 46 44 43 42 41 39 37 36 36 36 36 36 36 37 38 38 39 40 42 45 46 48 49 50 51 52 54 57 59 60 62 63 64 65 66 66
91 91 89 86 84 82 80 80 79 76 75 74 72 71 69 67 65 62 60 59 58 57 58 58 57 56 52 48 48 48 48 46 44 41 39 39 38 38 37 37 38 39 39 40 40 41 43 44 44 45 45 46 47 48 50 51 53 55 57 60 64 66 67
91 90 88 86 84 82 82 82 80 78 77 76 74 73 71 68 67 65 64 63 62 60 60 60 60 58 54 51 53 53 51 49 48 45 43 41 40 40 39 39 39 39 40 40 40 41 43 43 43 43 43 43 44 44 45 46 46 48 51 55 58 60 60
90 89 87 85 84 84 84 84 83 81 79 78 77 75 71 69 69 68 66 66 65 63 63 63 61 59 56 56 58 57 54 52 51 49 46 44 43 42 41 41 40 40 40 40 41 42 43 44 44 44 43 43 44 44 44 44 44 46 49 51 52 52 52
92 91 88 86 85 84 85 86 85 84 82 80 78 75 72 71 71 70 68 68 66 66 65 65 64 62 61 61 61 59 56 55 54 52 50 48 46 45 44 44 43 42 41 41 41 42 43 45 45 45 45 45 45 45 45 44 46 48 49 48 48 48 48
94 92 90 88 86 85 86 87 86 86 85 82 78 76 74 74 72 71 71 70 69 68 68 67 66 65 64 63 63 62 59 57 56 54 52 51 49 47 46 46 46 45 43 43 43 43 44 45 46 46 46 46 46 46 45 45 46 48 48 48 49 49 49
94 94 92 89 86 85 87 89 88 87 86 82 79 78 77 76 75 74 73 73 72 71 70 69 68 67 66 65 65 64 62 59 57 55 53 52 51 50 49 48 48 48 47 46 46 46 46 47 48 48 48 47 47 47 47 47 47 47 48 49 50 51 51
96 95 92 88 86 87 91 92 90 87 86 83 81 80 79 78 78 77 76 76 75 74 72 71 70 69 67 66 65 64 63 61 58 56 55 54 53 52 52 51 51 51 51 50 49 49 49 49 49 50 50 50 49 48 49 50 49 49 49 50 50 51 52
94 91 89 88 88 89 91 91 90 88 87 85 83 82 81 81 80 80 79 79 78 77 76 74 72 71 69 68 67 65 63 62 60 59 57 56 55 55 55 55 55 54 54 53 52 52 51 52 52 52 52 52 51 51 51 52 52 52 51 51 52 52 53
90 87 87 89 90 89 90 92 92 90 88 87 85 84 84 83 82 81 81 81 81 81 79 77 75 73 72 70 68 66 65 63 62 61 60 59 58 58 58 58 57 57 57 57 56 55 54 54 54 54 55 55 54 53 53 54 55 54 54 54 54 55 55
87 85 87 90 91 90 91 92 92 90 89 88 87 86 85 85 84 83 82 82 82 82 81 80 78 76 73 72 69 68 66 65 64 64 64 63 62 61 60 60 60 60 60 59 59 58 58 58 57 57 58 58 58 57 56 57 57 58 57 57 57 57 57
85 84 87 90 90 90 91 92 92 90 88 88 88 87 87 86 85 85 84 82 82 83 82 81 79 77 75 73 71 70 69 68 67 67 67 66 65 64 63 63 62 62 62 62 61 62 62 62 62 61 61 61 61 61 60 60 60 61 61 60 60 60 59
85 85 88 90 90 90 92 92 91 89 89 88 88 87 87 86 86 86 86 84 83 83 83 82 80 79 77 75 74 73 72 71 70 70 69 68 68 67 66 66 65 65 64 64 64 65 65 66 66 66 66 66 65 65 65 64 64 64 64 64 63 63 62
86 86 89 91 90 89 90 92 91 90 90 90 88 87 86 86 87 88 87 86 85 84 84 83 82 80 79 77 77 76 75 74 73 72 71 71 70 70 69 68 68 67 67 67 68 69 69 70 70 70 70 70 70 69 69 68 68 67 67 67 66 66 65
89 89 91 91 89 88 89 90 90 90 91 91 88 86 86 86 88 88 87 87 87 86 85 85 84 83 82 80 79 78 78 77 75 75 74 73 73 72 72 71 70 70 70 70 72 73 73 73 73 74 74 74 74 73 73 72 71 71 71 70 70 69 68
92 92 92 91 88 88 89 91 90 90 91 90 88 86 86 86 88 88 87 87 88 88 86 85 85 85 84 83 82 81 79 78 77 77 76 75 75 75 74 74 74 73 73 74 75 76 76 76 76 77 77 77 77 77 77 76 75 74 74 73 73 72 71
95 95 93 91 88 88 90 90 90 89 90 89 88 88 87 87 90 90 88 88 89 88 87 87 87 87 87 85 84 82 80 79 79 78 78 78 78 78 77 77 77 77 77 77 78 78 77 77 77 77 77 77 78 79 79 79 78 77 77 77 76 75 74

ECMWFFLT2_250_spd_036.txt.gz
Wind_Speed
52 51 48 45 40 37 34 29 27 28 29 28 26 28 30 33 37 41 43 45 49 51 50 49 48 45 42 39 36 34 31 28 27 25 23 22 20 19 20 24 28 33 36 37 38 37 37 36 36 35 35 33 31 29 27 27 26 25 24 23 22 21 22
54 54 51 46 43 39 34 31 30 30 27 24 23 26 29 30 35 40 43 45 48 51 51 51 50 47 44 41 38 37 34 31 29 29 26 24 23 21 20 23 27 33 36 37 37 38 38 37 36 35 34 32 31 30 29 29 28 27 25 24 24 23 23
58 58 54 48 46 40 36 36 34 29 26 24 23 25 27 29 34 40 41 43 46 50 52 52 50 49 47 44 41 40 38 35 33 32 30 27 25 24 23 23 27 33 37 37 37 38 38 38 37 36 34 33 33 32 31 30 29 27 26 26 27 26 24
62 59 53 48 46 41 40 40 34 30 31 28 25 25 27 29 33 38 38 40 44 47 49 49 48 48 48 46 45 43 41 39 37 35 32 29 26 26 26 26 28 32 35 36 36 36 36 36 36 35 35 35 35 34 33 32 30 29 29 29 28 27 24
63 57 51 49 47 43 42 40 36 35 35 32 29 28 27 27 32 37 37 39 42 43 44 45 47 48 48 47 47 45 42 40 39 36 33 31 29 28 28 28 29 31 33 35 34 34 33 33 33 33 34 35 35 34 34 33 32 32 31 31 30 28 26
63 58 54 52 51 47 46 45 42 41 40 37 35 32 30 30 33 37 37 37 39 39 41 43 45 48 49 49 48 47 45 43 41 38 35 33 32 30 29 30 31 31 32 33 32 31 31 30 31 32 34 35 35 35 35 34 33 33 33 32 31 29 29
66 62 58 55 54 52 50 47 44 43 41 40 37 34 34 34 36 38 37 36 37 37 38 40 42 45 48 50 50 50 48 47 45 43 40 37 35 34 32 31 32 33 33 33 32 31 29 29 30 31 33 35 35 36 36 35 35 35 33 32 31 31 31
70 65 60 58 57 54 50 46 44 43 41 40 39 38 38 37 37 37 36 35 34 34 35 36 38 42 46 49 52 52 51 51 49 46 44 42 40 38 36 35 34 34 34 34 33 32 31 31 31 32 34 35 36 37 36 37 37 36 35 34 33 33 33
71 66 62 61 58 53 49 46 45 45 44 44 42 42 41 38 35 33 33 32 32 31 31 31 33 37 43 48 51 53 53 53 52 50 47 45 44 42 41 39 37 36 35 35 35 35 35 34 34 35 36 37 37 37 37 38 38 37 36 36 35 36 35
71 67 64 61 57 52 49 47 46 47 46 45 45 45 44 39 35 33 31 32 33 31 28 29 30 33 39 45 50 52 54 54 54 52 50 48 47 45 43 41 40 39 38 37 37 37 37 37 37 38 39 39 39 39 39 39 38 37 37 37 37 37 36
73 69 65 62 58 54 51 48 48 48 48 47 48 48 45 41 39 37 34 35 37 34 30 30 32 33 36 41 46 50 52 53 54 53 52 51 49 47 45 43 42 41 40 39 38 38 38 39 40 40 39 39 39 40 40 40 39 37 37 38 38 38 39
75 71 67 64 60 57 55 52 51 52 51 50 50 49 47 45 42 39 38 40 42 38 33 32 33 33 34 36 39 44 48 51 52 52 52 52 50 48 47 45 43 42 42 42 41 40 39 40 41 41 40 40 40 41 41 41 40 39 39 40 40 40 41
77 74 70 67 63 60 58 55 54 55 54 52 52 52 51 49 45 43 43 44 46 42 35 34 34 33 32 33 35 38 42 46 49 51 52 52 51 50 49 47 46 45 45 45 43 42 41 41 41 41 41 41 41 42 42 42 41 41 42 42 42 42 43
78 76 73 70 66 63 60 58 57 57 56 54 54 54 52 50 48 46 46 47 48 45 38 36 36 32 30 31 31 33 36 39 43 46 48 50 51 52 51 51 50 49 48 47 46 45 45 44 43 43 42 43 43 44 44 43 43 43 43 44 44 44 46
81 79 76 73 69 66 63 61 60 59 58 56 55 54 53 51 49 49 48 47 49 47 42 39 37 34 32 31 31 32 33 34 36 40 43 46 49 51 52 52 52 52 51 49 49 48 47 47 46 46 45 45 44 44 44 44 45 44 44 45 46 46 48
84 82 79 76 72 69 66 63 62 61 60 58 56 55 54 52 51 51 49 48 49 49 45 42 39 36 33 33 33 33 32 33 34 35 38 41 44 47 50 52 53 53 53 52 51 50 49 49 48 48 48 47 46 45 45 46 46 45 45 46 46 47 49
87 85 81 78 75 72 68 65 64 64 63 61 59 58 56 54 53 51 50 49 49 49 46 43 40 36 34 34 34 34 33 32 32 33 34 36 38 41 44 48 51 53 54 53 53 53 53 52 52 51 51 50 49 49 49 49 48 47 48 48 48 49 49
89 86 82 79 77 75 72 68 67 67 66 64 61 59 58 56 53 52 51 50 49 49 47 44 41 39 38 36 33 31 30 30 31 32 33 33 35 37 39 42 45 48 51 53 53 54 55 55 55 54 54 53 53 52 51 51 50 50 51 51 51 51 51
89 87 84 83 80 78 74 71 69 69 68 66 63 61 60 59 56 55 53 51 50 50 49 45 42 42 41 37 34 31 30 31 32 33 35 35 35 36 37 39 40 43 45 48 50 52 53 54 54 55 55 55 55 54 54 54 53 54 54 54 54 54 54
90 89 87 86 83 80 76 73 71 71 71 69 66 65 64 63 60 57 54 52 51 53 51 47 44 44 41 39 36 35 34 34 34 35 37 39 39 38 39 39 39 40 41 42 44 46 48 49 51 52 53 53 53 54 54 55 56 56 56 57 57 57 57
92 90 90 88 85 81 78 75 74 74 73 71 69 68 67 65 63 60 57 54 54 54 53 50 48 47 44 41 40 39 38 37 37 38 39 40 40 40 40 39 39 39 39 39 40 40 41 43 45 46 47 47 49 49 50 52 53 54 56 57 57 58 59
94 92 91 90 87 83 81 79 77 76 76 74 73 71 69 67 66 64 61 57 56 56 55 52 51 50 48 46 45 44 42 39 38 38 39 40 39 38 38 37 37 37 37 37 37 38 38 39 40 41 41 42 43 45 46 47 48 49 51 53 53 54 56
96 94 92 90 88 86 85 82 79 78 78 77 76 74 72 70 70 69 65 62 59 58 57 55 54 53 51 50 50 48 44 42 40 40 40 41 40 38 37 36 35 35 35 35 35 36 36 37 38 38 38 39 40 41 42 43 43 45 46 47 47 48 49
96 95 93 91 90 90 87 84 81 80 80 79 79 78 76 73 73 72 70 66 64 62 61 59 57 56 55 54 53 51 48 46 44 43 43 43 43 41 39 38 37 37 37 36 36 36 36 36 37 37 37 37 38 39 39 39 40 41 42 42 42 43 44
97 97 95 93 92 91 89 86 84 83 82 81 81 81 79 76 75 74 73 70 68 66 65 63 61 60 58 57 56 55 53 50 48 47 47 46 46 45 43 41 40 40 40 39 39 38 38 38 37 38 38 38 38 38 38 39 40 40 40 40 40 41 42
98 98 97 96 95 93 91 89 87 85 84 84 84 83 81 79 77 76 75 73 71 70 69 67 65 63 62 61 60 59 57 54 51 50 50 49 49 48 47 45 44 43 43 42 40 40 40 39 39 39 39 39 39 40 40 41 42 42 41 41 42 42 42
98 98 99 99 97 94 91 89 88 88 88 87 85 83 82 81 80 78 77 76 74 73 72 70 68 67 66 65 64 62 60 58 54 53 52 52 52 51 50 49 47 46 45 44 43 42 42 42 42 42 42 42 42 42 42 43 44 44 44 43 43 43 43
98 99 99 99 97 94 91 90 90 91 90 88 85 84 84 83 82 80 80 79 77 76 75 74 72 70 68 67 66 65 63 61 59 57 56 55 55 54 53 52 51 50 49 48 47 46 45 45 45 44 45 45 44 44 45 45 45 46 46 46 46 46 46
96 96 96 97 95 93 91 91 92 92 92 89 87 86 85 84 84 82 81 81 80 79 78 77 75 73 71 70 68 67 65 64 63 61 60 58 57 57 56 55 55 53 52 51 50 49 49 49 48 48 48 48 48 48 47 47 47 48 48 49 49 49 49
93 94 95 95 95 94 94 94 94 93 92 91 90 88 87 86 86 84 83 82 82 80 80 79 78 77 75 72 70 69 68 67 66 65 63 62 60 59 59 58 57 57 55 54 53 53 52 52 51 50 50 50 51 51 50 50 50 51 51 51 52 52 52
91 92 94 95 96 96 96 96 95 94 93 93 91 90 89 88 87 86 85 84 83 82 81 81 80 79 77 75 73 71 70 69 68 67 66 65 63 62 61 61 60 59 58 57 56 55 54 54 53 52 52 52 53 53 53 53 53 54 54 54 55 55 55
88 90 92 94 95 96 97 97 97 96 95 94 92 91 90 89 89 88 86 85 84 83 82 82 82 81 80 78 76 74 72 71 70 69 68 67 66 65 63 63 62 61 61 60 59 58 57 56 55 55 55 55 55 55 56 57 57 57 58 58 58 58 58
86 88 91 94 96 97 99 98 97 97 96 94 93 91 91 90 90 89 87 86 85 85 84 83 83 83 82 80 78 76 74 73 72 71 69 69 68 67 66 65 64 63 63 62 61 60 60 59 59 59 58 58 58 58 59 59 60 60 60 60 61 61 61
86 87 91 94 96 97 99 99 97 96 96 95 94 93 92 91 90 90 89 87 86 86 86 85 85 84 84 83 81 79 77 75 74 73 71 70 70 69 68 67 66 65 64 64 63 63 63 62 62 62 62 61 61 61 61 61 62 62 63 63 63 63 63
86 87 91 93 93 95 98 98 97 96 96 96 95 93 92 92 91 91 90 89 88 87 86 86 86 86 86 85 84 82 80 78 76 75 73 72 71 71 70 69 68 68 67 66 65 65 65 65 65 65 65 65 65 64 64 64 64 64 65 65 65 65 65
86 87 89 91 91 93 95 97 96 96 96 96 96 95 93 93 92 92 91 90 89 88 87 87 88 89 89 88 87 86 83 81 79 77 76 74 73 72 72 72 71 71 70 69 68 68 67 67 67 67 67 68 68 68 68 68 67 67 67 67 67 67 67
87 87 87 88 88 90 93 94 94 95 96 96 96 95 95 94 93 93 92 92 91 89 88 88 89 89 89 89 89 89 87 85 82 80 78 77 76 75 74 74 73 73 72 72 71 71 70 70 69 69 69 70 70 70 71 71 71 70 70 70 70 70 71

ECMWFFLT2_250_spd_042.txt.gz
Wind_Speed
65 63 61 61 59 57 56 54 51 50 52 51 49 48 49 49 48 47 46 46 48 47 46 48 47 47 48 48 48 44 39 37 35 33 33 32 29 27 26 25 25 23 23 25 25 24 25 28 28 27 31 37 40 41 39 37 35 34 33 32 30 28 26
65 64 65 64 61 59 57 54 53 54 54 50 46 46 47 46 44 45 46 46 46 45 44 46 46 46 47 48 48 45 40 39 38 37 37 36 32 29 28 27 25 23 23 25 25 25 27 31 31 28 30 37 40 41 40 39 37 37 36 34 31 29 27
66 67 68 65 60 58 55 54 56 55 52 47 44 44 44 43 43 44 44 45 45 44 45 47 46 45 46 48 48 45 43 44 44 42 40 39 36 31 29 29 27 24 25 25 25 25 28 32 31 28 30 37 41 42 41 40 39 38 36 34 31 29 28
69 69 68 62 56 55 55 54 56 52 47 46 44 42 43 43 44 44 43 44 45 45 46 48 46 45 46 48 48 47 47 48 47 45 43 42 39 34 32 32 30 27 26 26 25 25 26 30 31 28 30 38 42 42 42 42 40 38 36 35 33 32 31
72 68 63 57 54 55 55 54 54 49 46 46 42 40 41 43 43 42 43 45 46 46 46 46 44 43 45 47 47 48 49 50 49 47 44 43 41 38 35 34 33 29 26 26 25 24 26 29 30 28 31 38 42 42 42 42 41 39 37 37 36 35 34
70 62 59 58 56 56 57 56 55 52 49 48 42 38 39 41 41 42 44 45 45 43 41 41 41 43 45 47 47 49 51 52 51 48 47 45 43 41 38 35 34 31 28 27 25 23 26 29 30 30 33 38 42 41 40 41 41 40 38 38 38 37 37
68 62 62 64 61 60 61 60 57 55 53 50 44 39 40 42 42 44 45 46 43 38 37 41 42 43 45 47 48 50 53 54 52 51 49 47 45 44 40 36 35 32 30 28 25 23 26 29 30 32 34 38 41 40 39 40 42 41 39 38 38 38 38
71 68 68 68 66 64 62 60 57 55 53 51 47 43 43 44 45 46 46 46 42 36 37 41 41 41 44 46 49 51 53 55 54 53 52 50 48 46 42 38 36 34 32 29 26 25 27 30 31 33 35 38 40 40 41 41 42 42 41 39 38 38 38
76 73 71 70 67 63 60 59 57 54 54 54 49 46 45 46 47 48 48 48 44 38 38 37 36 40 43 45 48 50 52 55 55 54 53 51 49 47 43 41 40 38 36 33 30 28 29 32 33 34 37 40 41 42 43 44 43 43 43 41 39 38 38
78 73 69 68 66 61 59 59 58 56 56 55 51 47 46 46 49 49 49 51 45 40 39 35 32 37 41 44 48 50 51 53 55 54 53 52 51 49 46 45 44 42 39 37 35 32 31 33 35 36 39 42 43 43 44 45 44 44 44 43 40 39 38
80 74 71 71 71 68 64 61 60 59 58 56 53 50 47 48 50 49 51 52 45 41 41 35 31 34 38 42 46 48 49 51 54 55 54 55 56 53 50 47 45 44 42 39 37 34 33 34 37 39 42 44 45 45 45 45 45 45 45 44 42 40 39
82 78 76 77 76 72 67 65 64 63 62 59 55 52 50 51 52 51 53 53 47 43 41 35 34 36 37 38 41 45 48 49 52 55 57 58 58 55 51 48 46 46 45 42 39 36 34 35 38 42 45 47 48 47 47 46 46 46 46 45 44 42 41
84 81 78 78 76 73 69 67 65 65 64 61 57 55 54 54 53 54 55 54 50 46 43 40 40 39 38 38 40 43 45 47 51 56 59 59 58 56 53 51 50 48 47 45 42 39 36 35 38 42 45 48 50 49 48 47 46 46 46 46 46 44 43
88 84 80 78 77 75 72 68 66 66 65 62 61 60 59 57 56 57 56 54 52 49 46 46 45 42 40 39 38 39 42 47 51 55 57 57 57 57 56 54 52 51 49 46 43 42 41 38 37 40 43 47 49 50 49 47 47 46 46 46 46 46 46
89 86 82 79 77 74 73 71 69 68 67 65 64 64 62 60 60 60 58 56 54 51 49 49 48 45 40 37 35 37 41 45 48 51 53 55 56 58 57 55 54 52 51 49 46 45 45 42 40 40 41 44 46 48 49 49 48 47 46 47 47 47 47
88 85 83 81 78 77 77 75 71 68 67 66 66 65 64 62 63 64 62 58 55 52 51 51 50 45 40 37 36 37 40 42 44 48 50 53 55 56 57 57 56 55 55 54 51 49 47 45 44 42 41 42 44 46 48 48 47 47 47 48 48 47 47
86 86 84 82 81 81 78 73 68 65 67 68 69 68 66 65 65 66 65 61 57 55 54 54 53 47 44 43 40 39 39 40 42 45 47 50 53 55 57 58 59 59 58 55 53 51 50 48 46 44 43 43 43 44 45 46 46 47 48 48 47 47 46
87 88 86 85 85 81 75 72 70 70 71 72 73 71 68 67 67 67 67 64 61 60 58 56 54 50 48 46 43 40 38 38 40 42 43 46 50 53 56 58 59 59 58 56 55 55 53 51 49 47 46 45 44 44 45 45 46 46 47 47 47 47 46
89 89 89 89 86 78 76 78 78 77 76 75 75 75 73 71 70 70 71 71 67 62 57 54 54 53 51 48 44 41 38 37 39 41 41 43 45 50 55 59 60 60 59 58 57 57 55 53 51 50 49 48 47 46 45 46 46 46 46 46 46 47 46
91 94 94 91 84 79 81 84 82 80 79 77 76 76 74 74 74 73 74 73 67 59 55 54 54 54 54 52 49 45 41 41 42 41 40 41 43 46 51 54 58 61 60 59 58 57 56 55 54 52 51 50 49 48 47 46 45 45 45 45 46 47 47
95 97 95 90 85 85 86 85 83 82 80 77 77 77 76 76 75 72 70 68 65 60 59 59 58 59 60 58 53 49 46 45 42 38 37 38 39 39 42 48 55 60 61 60 60 58 57 56 55 54 53 51 51 49 49 48 47 45 45 45 45 46 46
96 96 94 90 89 89 87 85 86 84 80 79 79 79 78 78 76 71 69 69 68 67 68 67 65 64 62 58 54 52 49 44 39 36 37 38 36 35 40 46 52 55 58 61 61 60 59 58 57 55 54 53 52 51 51 50 49 47 47 47 46 46 45
95 95 95 93 92 90 88 87 88 85 83 83 81 79 80 81 78 75 74 74 73 72 71 68 63 59 58 58 59 56 49 42 39 39 39 38 36 38 42 44 46 50 54 58 60 60 60 59 59 58 56 55 53 52 52 51 50 50 49 49 48 47 46
95 95 95 95 94 92 90 90 90 88 87 86 84 82 84 83 80 77 76 75 73 72 69 65 61 59 60 63 62 56 48 42 41 43 40 38 40 42 41 41 43 46 49 52 55 58 59 59 59 59 58 57 55 54 54 53 52 52 51 51 50 49 48
96 95 96 97 97 95 93 94 94 91 89 89 88 87 86 83 79 77 77 75 72 69 67 65 65 65 65 65 60 54 49 46 45 45 43 41 42 43 42 42 43 43 44 47 50 53 55 57 58 57 57 57 56 56 55 54 54 54 53 52 52 51 51
96 96 97 99 98 96 95 97 97 93 91 92 92 88 85 82 80 79 79 76 72 69 68 68 68 67 65 63 61 58 56 53 50 47 45 42 42 43 44 44 42 41 42 44 45 47 50 52 53 54 55 55 55 55 55 55 55 54 54 54 53 53 52
97 98 99 101 100 98 97 97 97 94 93 93 91 87 83 82 81 79 78 76 73 71 70 69 68 66 64 63 63 62 60 58 53 48 46 45 44 44 45 44 43 43 42 42 42 43 45 46 47 48 49 50 50 51 51 51 52 51 51 52 51 51 51
100 100 101 102 101 98 97 97 96 94 92 92 91 88 83 80 80 79 78 77 75 72 71 70 68 66 64 63 63 63 62 61 57 51 48 48 47 46 45 45 45 45 43 43 43 42 43 43 42 42 42 43 43 43 43 43 43 43 43 44 44 45 44
101 102 102 103 101 98 95 94 93 92 91 90 91 90 86 82 81 80 79 78 76 74 73 72 69 66 64 64 64 64 64 64 61 55 51 49 49 48 46 46 47 47 45 45 45 44 44 43 41 40 40 40 39 39 39 39 39 39 38 38 39 40 40
99 100 101 100 99 96 92 90 91 91 90 90 91 91 88 84 82 81 80 78 77 76 75 73 70 68 66 65 66 66 65 64 63 59 54 51 50 50 49 49 49 48 47 46 46 46 45 44 43 42 41 40 39 40 40 40 40 39 38 39 39 39 39
100 101 102 101 100 97 92 90 92 91 89 89 90 91 90 86 83 81 80 79 78 77 76 74 73 71 68 67 67 66 66 65 64 63 59 54 52 52 52 52 51 49 48 47 47 46 46 45 44 43 41 41 41 41 41 40 40 40 40 40 40 40 39
100 102 102 101 99 96 92 90 91 90 87 86 89 91 91 88 85 83 82 81 81 79 77 75 74 72 70 69 67 67 67 67 66 65 63 59 55 54 54 55 54 52 50 49 49 48 47 47 45 44 43 42 42 42 42 42 41 41 41 41 41 40 40
99 100 100 99 97 94 92 91 91 89 86 86 89 91 92 90 88 86 84 83 83 80 77 75 74 73 72 70 69 68 67 68 68 67 65 62 59 57 56 57 56 55 53 52 51 50 49 48 47 45 45 44 44 44 44 44 43 43 43 43 43 42 42
98 99 99 98 96 93 92 92 91 89 87 87 90 92 92 92 90 88 86 85 84 82 79 76 75 74 73 72 71 69 68 69 69 69 67 65 62 60 59 59 59 58 56 55 54 53 52 50 49 48 47 47 47 46 46 46 46 46 46 46 46 46 46
97 97 97 96 93 91 91 90 88 85 85 86 88 89 90 91 91 89 88 87 86 84 82 79 77 75 74 74 73 71 70 70 70 70 69 67 65 64 63 62 61 60 59 58 57 57 55 53 52 51 50 50 50 49 49 49 49 49 49 49 48 49 50
96 95 94 91 88 86 86 86 82 80 81 83 85 87 89 90 91 90 89 88 87 86 85 82 80 77 76 75 75 74 73 72 71 70 70 69 68 67 66 65 64 63 63 62 61 60 59 57 56 55 54 54 53 53 52 52 52 51 51 51 51 53 53
93 92 91 87 84 83 84 85 83 82 83 86 88 89 90 91 92 92 91 90 89 88 87 85 83 80 78 77 76 76 76 74 72 71 71 71 70 69 68 68 67 67 67 66 64 63 62 61 60 59 59 58 57 57 56 55 55 54 54 54 55 55 56

ECMWFFLT2_250_spd_045.txt.gz
Wind_Speed
72 72 70 68 67 64 63 62 57 55 56 59 58 55 56 57 54 52 51 50 52 54 50 48 46 45 42 41 42 41 38 38 38 36 36 36 38 38 33 31 29 26 24 23 21 21 21 23 25 25 23 22 22 23 26 31 34 34 32 31 29 29 29
74 74 73 72 70 67 63 60 58 60 63 61 57 55 57 54 50 50 50 50 52 50 47 46 45 44 41 39 40 40 39 39 38 38 39 40 41 40 36 33 31 28 26 25 25 24 23 25 25 24 22 21 21 22 26 31 36 37 35 34 33 33 32
77 78 78 75 71 66 62 60 62 64 62 58 55 55 55 52 50 51 51 51 50 47 46 46 44 43 42 40 40 39 39 39 39 41 43 45 44 43 41 37 33 31 29 27 27 26 24 24 25 25 24 22 22 23 25 31 37 39 38 37 36 36 35
82 83 80 74 68 65 63 63 64 63 60 58 56 55 54 53 52 52 51 49 47 46 47 45 43 43 42 40 39 40 40 40 41 44 48 49 46 44 45 41 36 35 32 29 28 26 23 22 23 25 26 25 24 24 26 31 37 40 41 40 39 38 35
86 84 77 68 65 65 64 63 63 61 59 57 55 55 54 52 51 51 49 48 46 47 47 44 42 42 41 39 39 41 42 42 43 47 50 51 48 45 47 44 40 37 34 30 28 26 24 23 22 24 27 29 28 26 27 32 38 42 42 42 41 39 35
86 80 72 67 67 68 66 65 64 63 61 58 55 55 54 52 51 50 48 47 47 47 44 41 41 41 38 39 40 42 44 44 45 48 51 50 47 46 47 46 42 38 35 33 31 28 27 25 23 23 26 30 32 29 29 33 39 42 43 43 42 39 36
83 77 73 71 72 72 71 69 68 66 64 60 56 55 56 54 52 51 49 48 48 46 42 40 39 37 38 41 42 43 46 48 46 48 51 50 48 48 47 45 44 40 37 36 34 31 29 26 22 22 25 30 31 30 29 33 39 43 44 44 43 40 38
81 79 77 75 76 77 75 71 68 65 63 60 57 57 59 57 54 53 50 48 48 47 42 40 38 37 41 44 44 45 48 49 48 49 52 52 50 50 48 46 46 42 38 37 35 32 31 28 23 22 25 28 30 31 30 32 38 42 45 45 44 42 41
83 82 81 78 77 77 72 67 64 62 61 61 60 60 60 58 55 53 51 49 50 48 43 40 39 41 44 44 43 44 47 48 46 47 52 52 51 51 51 50 48 43 40 39 37 34 33 30 25 23 24 28 31 33 32 33 36 41 46 47 46 44 44
84 82 81 75 71 70 66 62 61 61 62 63 61 60 60 57 55 53 52 51 50 47 42 40 41 44 44 41 41 43 45 45 44 46 51 53 53 53 53 52 50 46 44 42 39 37 35 32 28 26 27 30 34 35 35 35 36 40 46 48 47 46 46
84 82 79 72 68 68 66 63 62 62 63 63 62 61 58 56 56 54 52 52 49 45 42 42 43 43 40 38 40 43 43 44 44 47 51 54 55 55 55 54 52 50 49 46 42 40 37 33 31 29 30 34 36 37 37 38 38 40 45 48 49 48 47
86 83 79 75 72 71 69 66 64 63 63 62 61 60 58 57 57 55 52 51 47 43 44 45 43 40 37 37 39 41 43 44 45 47 51 55 55 55 55 56 54 53 51 49 45 42 38 36 34 32 32 35 37 38 39 40 41 42 44 47 49 49 48
86 84 82 80 77 74 72 70 66 63 63 62 59 59 60 59 58 55 53 51 47 45 47 47 43 38 35 36 38 40 41 42 44 47 50 53 55 55 56 56 55 54 52 50 48 44 41 39 38 35 34 34 36 38 39 42 44 44 45 46 48 49 48
85 87 86 83 79 75 73 71 67 63 63 62 61 62 63 61 59 56 53 50 48 49 51 49 43 38 36 36 37 38 40 42 45 48 49 51 53 55 56 56 56 54 52 51 50 47 44 42 40 38 36 34 35 37 38 41 44 46 46 46 47 47 48
85 86 85 83 81 78 75 73 70 65 62 63 65 66 65 63 62 58 54 52 52 52 52 49 44 41 39 39 38 37 39 42 45 47 48 49 51 53 54 56 56 54 53 52 50 48 46 45 42 39 37 35 34 35 37 40 43 46 47 46 46 46 47
83 82 82 83 82 78 75 73 70 66 63 64 66 67 65 64 63 61 57 55 55 53 52 50 48 45 42 40 39 39 41 42 43 45 46 47 49 52 54 57 57 56 54 53 51 49 48 46 44 42 39 37 35 35 36 38 41 44 46 47 47 46 46
82 79 80 83 80 75 73 71 70 69 66 66 67 68 67 66 66 64 61 57 56 55 54 53 51 46 42 40 40 41 42 43 42 43 44 45 48 51 54 56 58 57 56 55 53 52 50 48 47 45 43 40 38 35 34 35 38 42 45 47 47 46 46
81 79 80 83 79 75 74 72 72 74 74 73 71 70 70 69 68 66 64 61 60 59 58 56 52 47 45 44 43 42 43 44 44 44 43 43 44 46 49 53 55 57 56 56 55 55 54 52 51 48 45 43 41 38 34 33 35 39 43 45 47 47 46
81 78 80 81 78 75 74 73 76 80 80 78 75 72 73 74 72 69 68 66 65 63 62 59 53 48 47 47 47 46 45 44 44 43 41 40 39 41 46 50 53 55 55 56 58 58 57 55 53 51 47 44 42 40 37 35 34 36 39 43 45 47 46
80 79 81 82 79 76 76 78 81 83 81 78 77 76 78 79 76 73 72 71 70 67 64 62 57 52 49 49 50 49 46 44 43 41 39 37 36 38 42 46 49 51 54 57 58 58 57 55 54 52 49 45 42 40 39 38 38 36 37 39 43 45 46
82 83 83 83 81 79 82 84 86 86 84 82 80 81 82 80 77 75 74 73 73 71 67 64 61 57 53 52 51 49 47 45 42 39 38 37 35 35 37 41 44 49 53 57 58 57 57 55 54 54 51 48 46 43 42 41 41 39 38 38 40 43 45
86 86 86 86 85 84 86 87 88 88 87 85 83 83 83 81 79 79 77 73 74 75 70 63 59 58 57 54 51 49 48 46 42 39 37 37 35 33 34 38 42 47 52 55 57 57 56 56 55 54 53 50 48 46 45 44 43 42 41 40 39 40 42
89 89 89 89 89 88 88 88 88 89 87 85 84 83 83 82 82 84 82 78 75 75 70 63 58 57 57 53 48 47 47 46 43 39 37 37 36 34 35 38 41 44 47 50 54 55 56 57 57 56 54 52 50 49 48 47 45 44 44 43 41 40 41
90 90 91 91 90 89 89 88 88 88 86 85 84 83 83 84 85 85 86 82 75 69 65 60 56 54 52 49 46 46 46 46 44 41 38 37 37 36 36 38 39 39 42 46 50 52 55 56 57 57 56 55 54 52 51 50 49 48 47 46 44 43 42
91 91 93 92 90 89 89 89 88 87 86 86 87 87 86 86 85 85 84 80 71 65 61 56 51 48 47 48 49 50 50 47 45 44 42 40 39 38 36 37 38 37 38 42 45 48 53 55 56 57 57 56 55 55 54 53 52 51 49 48 47 46 45
92 93 94 93 91 91 91 90 89 87 88 89 90 90 90 89 85 83 82 76 68 64 61 57 50 46 46 50 54 56 56 52 49 47 46 44 41 39 38 38 38 36 36 38 41 45 49 53 55 56 57 56 56 55 55 55 54 52 51 50 49 48 48
93 94 95 95 93 93 93 92 91 90 90 91 91 91 91 90 86 82 79 74 69 65 63 59 55 52 52 55 59 61 63 60 55 52 51 47 42 40 39 40 40 38 37 38 40 42 46 48 50 53 54 56 56 55 55 55 54 53 52 51 51 50 50
97 97 98 97 95 95 95 95 95 95 93 92 92 92 92 91 87 81 76 73 69 67 64 60 59 60 62 63 65 66 67 64 59 55 53 50 44 41 41 43 42 40 39 39 39 41 42 43 45 47 50 52 53 53 54 55 54 54 54 53 53 52 51
99 99 99 98 97 97 97 97 97 98 96 94 94 94 93 91 87 80 75 72 70 68 65 63 63 65 67 67 67 67 67 65 62 57 55 52 48 44 43 45 44 41 40 40 40 40 41 41 41 42 44 46 48 50 51 52 53 53 53 54 53 53 52
99 99 99 99 99 98 98 98 98 98 98 96 95 94 92 90 87 82 77 74 72 70 68 66 66 68 70 70 68 67 66 66 64 61 57 54 51 48 46 46 46 43 42 42 42 42 41 41 40 40 40 42 44 45 47 48 49 50 51 51 52 52 52
102 102 101 100 100 99 98 98 99 99 100 99 97 96 94 92 88 84 79 77 75 73 71 70 70 71 71 71 70 68 67 67 66 63 60 55 53 51 49 48 47 46 44 44 45 44 43 42 41 40 40 40 41 42 43 44 46 47 47 48 49 51 52
106 105 103 101 99 98 99 100 101 100 100 101 100 99 97 95 91 85 80 78 77 75 74 73 73 73 72 72 71 69 68 68 67 65 61 57 55 53 51 50 48 47 46 46 47 47 46 45 43 42 42 42 41 41 41 42 43 44 44 45 46 47 48
108 106 104 103 101 99 101 102 102 100 100 100 100 100 98 95 92 87 81 78 78 77 76 75 73 73 73 73 72 70 69 69 68 65 63 60 57 55 54 52 50 49 48 48 48 49 49 48 46 45 45 44 44 43 43 43 43 43 43 43 44 44 44
109 107 106 106 104 103 103 103 101 99 99 98 97 97 97 94 90 87 83 80 79 78 77 75 73 73 74 73 72 72 71 70 69 67 64 62 59 58 56 55 54 52 51 50 50 50 51 50 49 49 48 48 48 47 46 45 45 44 44 43 44 44 44
109 107 106 106 104 103 103 102 99 98 97 95 94 94 93 90 88 86 85 83 81 80 79 76 74 74 74 74 73 72 71 71 70 68 66 63 61 60 58 57 57 55 54 53 53 52 52 52 52 51 51 51 51 50 49 47 46 45 45 45 45 46 45
110 108 106 104 102 101 100 99 97 97 95 94 93 92 90 88 87 87 86 85 83 82 80 77 76 76 75 74 73 73 72 71 70 69 67 65 63 62 61 60 59 58 56 55 55 54 54 55 54 54 53 53 52 52 51 50 48 47 46 46 47 47 46
110 109 106 104 102 100 98 96 95 94 92 91 90 89 87 87 88 88 88 87 85 82 79 77 76 76 76 75 74 73 73 72 71 70 68 67 65 64 63 63 61 60 58 57 57 56 56 56 57 57 56 55 54 53 52 52 51 50 49 48 48 48 48

ECMWFFLT2_250_spd_048.txt.gz
Wind_Speed
85 82 81 82 80 77 76 75 70 65 64 66 66 64 63 61 59 57 56 53 54 58 59 57 53 50 48 44 39 37 36 37 38 39 39 35 33 36 38 37 36 34 31 28 27 26 27 28 27 26 26 27 27 25 24 27 30 31 31 30 29 28 28
83 83 83 84 81 78 76 73 68 68 71 70 67 65 63 60 56 55 55 54 56 58 56 54 52 48 45 42 39 36 34 35 35 38 41 37 35 38 39 39 38 37 34 31 30 29 28 28 29 27 27 28 29 28 27 28 31 34 34 33 31 31 30
81 83 85 85 82 78 74 71 70 72 72 68 65 63 60 57 54 54 56 57 57 55 54 53 51 47 45 42 40 37 35 34 33 36 42 40 37 39 41 41 41 40 37 34 33 32 30 28 29 29 28 29 31 31 29 30 32 34 35 35 34 33 33
83 86 87 83 78 75 73 73 73 72 68 66 65 63 59 57 56 56 59 58 54 52 54 55 50 47 46 43 40 38 36 35 34 36 42 43 40 42 44 44 44 43 41 37 35 33 31 28 28 29 29 30 32 32 31 31 32 35 36 37 37 36 35
88 89 85 77 72 71 71 71 70 69 67 66 66 63 61 59 57 59 60 56 52 54 57 54 49 46 45 42 41 39 37 37 36 37 44 47 45 45 47 46 45 45 43 40 36 34 32 29 29 29 30 31 32 32 32 32 32 35 37 38 39 38 37
91 87 79 74 72 71 71 70 68 68 67 67 66 62 57 56 55 57 58 54 54 57 55 51 47 45 43 42 41 38 37 38 38 41 46 50 49 47 48 45 44 45 44 41 38 35 33 31 29 29 30 32 33 33 33 33 33 35 37 39 40 39 38
90 83 77 77 76 75 75 74 72 72 70 69 66 60 56 56 57 58 57 55 55 56 52 49 47 44 43 43 41 38 38 38 40 44 48 52 51 48 47 43 41 43 44 42 40 38 35 32 30 29 30 32 34 34 34 33 34 35 37 39 40 40 39
88 84 81 81 80 80 80 79 76 74 71 68 65 62 62 63 62 61 59 56 56 55 51 49 48 45 44 43 41 40 40 40 43 47 50 52 52 49 46 43 41 43 44 43 42 40 37 34 32 31 31 31 33 35 36 35 35 36 38 39 40 42 41
90 88 87 86 84 84 83 80 75 71 69 68 67 66 66 65 64 62 59 57 58 56 52 51 49 47 44 43 44 43 42 42 45 48 50 52 53 50 46 45 44 44 45 46 46 43 39 37 35 34 32 31 32 35 37 38 37 37 39 40 41 42 43
93 91 89 88 87 85 82 77 72 69 68 69 69 67 65 62 62 61 57 56 58 56 53 52 51 47 45 46 47 46 43 42 44 47 49 51 53 51 48 47 47 46 47 49 48 45 42 39 37 36 35 33 32 33 36 39 39 38 39 41 42 43 44
94 90 88 88 88 85 80 75 72 70 70 71 71 68 63 62 63 61 58 58 59 56 53 52 50 47 46 48 48 46 43 41 43 46 48 50 52 52 49 48 48 48 48 49 48 46 45 42 39 38 37 35 33 32 33 37 40 40 39 41 43 45 46
93 90 88 87 86 83 80 77 75 73 73 73 72 67 63 64 65 62 60 61 60 57 53 51 49 47 48 49 48 44 42 41 42 45 47 48 51 52 50 47 47 50 51 50 49 48 47 44 41 39 38 37 34 31 31 35 39 40 39 41 43 46 47
92 91 90 88 84 81 80 79 78 76 75 73 70 66 64 65 65 64 64 63 61 59 55 52 50 48 49 49 46 44 42 42 42 44 46 48 50 51 50 48 47 50 53 52 51 50 48 46 43 41 40 38 36 33 31 33 38 40 40 41 43 46 48
91 92 92 89 85 80 79 79 79 78 76 73 71 69 68 67 66 67 67 65 64 62 57 54 52 50 49 48 46 44 44 43 43 44 45 48 50 50 49 48 46 49 52 54 53 51 49 47 45 44 42 39 38 36 33 32 35 39 41 41 43 46 48
91 92 92 89 86 82 79 79 79 78 77 75 74 73 71 69 69 69 69 67 66 64 59 56 54 52 49 47 46 45 44 43 44 45 47 49 49 48 47 47 46 47 50 53 53 52 50 49 47 46 43 41 39 37 35 33 33 37 40 41 43 45 48
91 91 90 89 87 83 80 79 79 78 77 76 75 74 72 71 72 71 70 69 67 65 61 57 54 52 49 47 46 46 45 45 45 45 46 47 47 45 45 46 46 47 49 51 53 52 52 51 49 47 45 43 40 39 37 34 32 33 36 39 41 44 47
90 89 88 89 87 84 82 81 81 81 78 75 75 75 74 74 74 73 71 70 69 66 62 58 55 52 49 46 46 47 47 46 44 44 44 45 44 43 44 46 47 48 49 51 53 54 54 53 52 49 47 45 43 41 39 36 33 31 33 36 39 41 45
90 88 86 87 86 85 84 84 84 83 79 76 75 76 75 74 74 73 73 72 71 68 63 59 56 52 49 47 47 48 48 46 44 43 43 43 42 41 41 43 45 47 49 51 53 55 56 55 54 51 49 47 45 43 40 37 35 33 32 33 36 39 42
89 87 85 84 84 85 85 85 85 83 79 76 74 72 71 72 73 74 74 73 71 68 64 60 56 52 50 48 47 48 48 46 44 43 41 40 39 38 39 41 43 46 47 50 53 55 56 56 55 53 51 49 47 45 42 40 38 35 33 32 33 35 38
89 86 84 83 82 83 85 85 84 81 78 76 74 72 71 71 73 74 74 72 70 68 63 59 55 53 51 49 47 47 47 45 43 42 40 38 38 38 38 40 43 45 46 48 52 55 57 57 56 55 53 50 48 46 44 42 40 37 34 32 32 33 35
89 85 83 83 83 82 84 86 83 81 81 80 77 76 73 72 73 75 74 72 70 68 63 58 55 54 52 50 48 47 47 46 43 41 40 39 38 38 38 39 41 43 46 47 50 53 56 57 56 55 53 51 48 47 46 44 42 39 36 34 32 32 33
90 86 81 80 80 77 79 83 84 81 81 81 78 77 75 74 75 77 76 73 71 68 63 58 54 54 53 52 50 48 47 46 44 41 40 40 40 40 39 38 39 40 43 45 48 51 54 56 57 56 55 53 51 49 47 46 44 41 39 36 35 33 31
90 88 83 80 78 76 76 82 83 82 81 80 78 77 77 77 78 78 77 75 72 69 65 58 54 53 54 53 51 49 48 47 45 42 41 41 41 41 40 38 38 39 40 43 46 49 52 54 56 57 57 56 54 51 49 47 45 43 41 39 38 38 34
90 89 87 84 80 78 78 81 82 82 82 80 79 80 81 81 80 79 78 75 73 70 65 59 56 54 54 54 52 49 48 48 46 44 43 42 41 41 41 40 39 39 39 40 42 45 49 51 54 56 57 58 56 54 52 49 47 46 44 41 40 40 37
92 90 89 86 82 79 78 80 82 84 84 82 82 83 82 81 81 80 78 74 72 69 64 59 57 54 53 54 53 51 50 50 49 47 46 44 42 41 41 41 41 40 38 37 38 41 45 48 51 53 56 57 57 56 54 52 50 49 46 44 43 41 39
93 91 89 86 83 79 76 78 82 84 84 83 84 83 80 79 80 80 77 73 71 69 65 60 58 56 54 53 54 53 52 52 52 50 48 46 44 43 42 42 42 41 39 36 37 39 41 44 47 50 53 55 57 57 56 55 53 52 50 48 46 45 42
94 91 89 86 84 80 77 77 79 82 83 83 84 82 78 76 77 77 76 73 71 70 67 62 61 60 58 55 54 55 55 54 54 52 50 49 47 46 44 43 42 42 40 37 36 37 38 40 43 46 49 52 55 56 57 57 56 55 53 51 49 48 46
95 92 89 87 86 83 80 78 78 80 82 83 82 80 76 74 75 77 75 73 72 72 70 66 63 63 61 57 55 56 57 57 56 55 54 52 51 49 46 44 42 41 40 38 37 37 37 38 39 42 45 48 51 53 55 57 57 57 56 54 52 51 49
98 95 92 90 88 86 82 79 78 79 81 82 82 78 75 73 74 76 75 73 73 73 73 70 67 65 64 61 57 57 59 60 58 57 57 56 54 52 49 46 44 43 41 39 38 37 37 37 37 39 41 43 46 49 52 54 55 56 55 55 53 52 51
101 98 95 92 91 89 85 81 79 79 80 82 82 79 76 72 70 71 74 75 74 74 74 74 71 68 66 64 61 58 60 62 60 57 58 58 56 54 51 48 46 44 43 41 40 39 38 37 36 37 38 39 42 45 48 51 52 53 54 54 53 52 51
102 99 97 95 93 92 88 84 80 78 78 81 83 81 79 72 64 64 70 73 74 74 74 74 73 71 69 67 65 60 60 63 64 60 57 56 55 54 52 49 47 46 44 43 41 40 39 38 37 37 37 37 39 41 43 46 49 51 52 53 53 52 52
103 100 98 97 94 92 89 86 82 78 78 79 81 83 83 77 66 60 61 65 70 73 73 74 74 73 71 70 68 64 62 64 67 66 62 59 56 55 54 52 50 48 47 45 43 41 40 40 39 38 37 37 37 38 39 41 43 46 49 51 52 53 53
104 102 100 98 95 92 90 89 86 82 81 80 79 82 85 83 74 64 57 57 62 68 73 75 75 73 72 72 70 68 66 66 68 69 67 64 60 57 56 55 53 51 50 47 45 43 43 42 41 40 39 38 37 37 37 38 39 40 43 45 48 51 52
104 103 101 100 98 95 93 93 91 87 85 84 80 80 84 87 84 76 64 57 59 63 66 72 78 77 74 73 72 71 71 71 71 71 69 66 62 59 57 57 56 55 53 50 47 46 46 45 44 43 42 40 39 39 38 38 37 37 38 40 42 45 47
105 104 102 100 99 97 96 96 95 92 89 87 83 79 81 86 90 87 75 66 67 67 63 65 73 78 76 75 75 75 75 75 74 72 69 67 65 62 59 58 58 57 56 54 52 50 48 47 47 46 45 43 42 41 40 39 38 38 37 37 39 40 42
104 104 103 101 99 98 97 98 99 96 93 90 86 81 79 81 87 91 87 80 80 80 75 70 72 76 76 76 76 76 77 77 76 73 72 70 69 65 63 61 59 58 57 56 55 53 51 50 49 49 48 48 47 45 44 43 41 40 39 38 38 39 40
104 104 104 103 100 99 99 99 100 100 98 95 91 87 82 78 79 84 89 88 86 87 85 81 79 79 78 77 77 77 77 77 77 75 74 73 71 68 66 64 61 60 58 57 57 57 55 53 52 51 51 51 51 49 48 46 45 44 42 41 41 41 42